Time,TemperatureF,DewpointF,PressureIn,WindDirection,WindDirectionDegrees,WindSpeedMPH,WindSpeedGustMPH,Humidity,HourlyPrecipIn,Conditions,Clouds,dailyrainin,SolarRadiationWatts/m^2,SoftwareType,DateUTC
2013-08-29 00:00:00,80.0,75.8,30.01,SE,136,0.0,4.0,87,0.00,,FEW,0.57,0.00,VWS V14.01,2013-08-29 04:00:00,
2013-08-29 00:01:00,80.0,75.8,30.01,SE,144,1.0,4.0,87,0.00,,FEW,0.57,0.00,VWS V14.01,2013-08-29 04:01:00,
2013-08-29 00:06:00,80.1,75.9,30.01,SSE,150,0.0,2.0,87,0.00,,FEW,0.00,0.00,VWS V14.01,2013-08-29 04:06:00,
2013-08-29 00:07:00,80.1,75.9,30.01,SSE,150,0.0,2.0,87,0.00,,FEW,0.00,0.00,VWS V14.01,2013-08-29 04:07:00,
2013-08-29 00:11:00,80.1,75.9,30.01,SSE,150,1.0,2.0,87,0.00,,FEW,0.00,0.00,VWS V14.01,2013-08-29 04:11:00,
2013-08-29 00:13:00,80.2,76.0,30.01,SSE,164,1.0,1.0,87,0.00,,FEW,0.00,0.00,VWS V14.01,2013-08-29 04:13:00,
2013-08-29 00:16:00,80.2,76.0,30.01,SSE,164,0.0,1.0,87,0.00,,FEW,0.00,0.00,VWS V14.01,2013-08-29 04:16:00,
2013-08-29 00:17:00,80.3,76.1,30.00,SE,145,2.0,3.0,87,0.00,,FEW,0.00,0.00,VWS V14.01,2013-08-29 04:17:00,
2013-08-29 00:18:00,80.3,76.1,30.00,SE,145,0.0,3.0,87,0.00,,FEW,0.00,0.00,VWS V14.01,2013-08-29 04:18:00,
2013-08-29 00:21:00,80.3,76.1,30.00,SE,136,1.0,3.0,87,0.00,,FEW,0.00,0.00,VWS V14.01,2013-08-29 04:21:00,
2013-08-29 00:22:00,80.3,76.1,30.00,SE,136,2.0,3.0,87,0.00,,FEW,0.00,0.00,VWS V14.01,2013-08-29 04:22:00,
2013-08-29 00:24:00,80.3,76.1,30.00,SE,140,2.0,3.0,87,0.00,,FEW,0.00,0.00,VWS V14.01,2013-08-29 04:24:00,
2013-08-29 00:26:00,80.3,76.1,30.00,SE,140,0.0,3.0,87,0.00,,FEW,0.00,0.00,VWS V14.01,2013-08-29 04:26:00,
2013-08-29 00:27:00,80.3,76.1,30.00,SE,140,1.0,3.0,87,0.00,,FEW,0.00,0.00,VWS V14.01,2013-08-29 04:27:00,
2013-08-29 00:28:00,80.3,76.1,30.00,SE,140,1.0,3.0,87,0.00,,FEW,0.00,0.00,VWS V14.01,2013-08-29 04:28:00,
2013-08-29 00:30:00,80.3,76.1,30.00,SE,140,0.0,3.0,87,0.00,,FEW,0.00,0.00,VWS V14.01,2013-08-29 04:30:00,
2013-08-29 00:31:00,80.3,76.1,30.00,SE,138,2.0,3.0,87,0.00,,FEW,0.00,0.00,VWS V14.01,2013-08-29 04:31:00,
2013-08-29 00:32:00,80.3,76.1,30.00,SE,138,1.0,3.0,87,0.00,,FEW,0.00,0.00,VWS V14.01,2013-08-29 04:32:00,
2013-08-29 00:33:00,80.3,76.1,30.00,SE,138,0.0,3.0,87,0.00,,FEW,0.00,0.00,VWS V14.01,2013-08-29 04:33:00,
2013-08-29 00:34:00,80.3,76.1,30.00,SE,138,0.0,0.0,87,0.00,,FEW,0.00,0.00,VWS V14.01,2013-08-29 04:34:00,
2013-08-29 00:35:00,80.3,76.1,30.00,SE,138,1.0,1.0,87,0.00,,FEW,0.00,0.00,VWS V14.01,2013-08-29 04:35:00,
2013-08-29 00:36:00,80.3,76.1,30.00,SE,138,1.0,2.0,87,0.00,,FEW,0.00,0.00,VWS V14.01,2013-08-29 04:36:00,
2013-08-29 00:37:00,80.3,76.1,30.00,SE,138,1.0,2.0,87,0.00,,FEW,0.00,0.00,VWS V14.01,2013-08-29 04:37:00,
2013-08-29 00:38:00,80.3,76.1,30.00,SE,138,2.0,2.0,87,0.00,,FEW,0.00,0.00,VWS V14.01,2013-08-29 04:38:00,
2013-08-29 00:40:00,80.3,76.1,30.00,SE,144,0.0,2.0,87,0.00,,FEW,0.00,0.00,VWS V14.01,2013-08-29 04:40:00,
2013-08-29 00:41:00,80.3,76.1,30.00,SE,144,0.0,2.0,87,0.00,,FEW,0.00,0.00,VWS V14.01,2013-08-29 04:41:00,
2013-08-29 00:42:00,80.3,76.1,30.00,SE,144,0.0,2.0,87,0.00,,FEW,0.00,0.00,VWS V14.01,2013-08-29 04:42:00,
2013-08-29 00:43:00,80.3,76.1,30.00,SE,144,0.0,0.0,87,0.00,,FEW,0.00,0.00,VWS V14.01,2013-08-29 04:43:00,
2013-08-29 00:46:00,80.3,76.1,30.00,SE,144,0.0,1.0,87,0.00,,FEW,0.00,0.00,VWS V14.01,2013-08-29 04:46:00,
2013-08-29 00:47:00,80.3,76.1,30.00,SE,144,0.0,1.0,87,0.00,,FEW,0.00,0.00,VWS V14.01,2013-08-29 04:47:00,
2013-08-29 00:48:00,80.3,76.1,30.00,SE,144,0.0,1.0,87,0.00,,FEW,0.00,0.00,VWS V14.01,2013-08-29 04:48:00,
2013-08-29 00:51:00,80.3,76.1,30.00,SE,144,0.0,1.0,87,0.00,,FEW,0.00,0.00,VWS V14.01,2013-08-29 04:51:00,
2013-08-29 00:52:00,80.3,76.1,30.00,SE,144,0.0,1.0,87,0.00,,FEW,0.00,0.00,VWS V14.01,2013-08-29 04:52:00,
2013-08-29 00:53:00,80.3,76.1,30.00,SE,144,0.0,1.0,87,0.00,,FEW,0.00,0.00,VWS V14.01,2013-08-29 04:53:00,
2013-08-29 00:56:00,80.3,76.1,30.00,SE,144,0.0,1.0,87,0.00,,FEW,0.00,0.00,VWS V14.01,2013-08-29 04:56:00,
2013-08-29 00:57:00,80.3,76.1,30.00,SE,144,0.0,1.0,87,0.00,,FEW,0.00,0.00,VWS V14.01,2013-08-29 04:57:00,
2013-08-29 00:59:00,80.2,76.0,30.00,SE,144,0.0,1.0,87,0.00,,FEW,0.00,0.00,VWS V14.01,2013-08-29 04:59:00,
2013-08-29 01:02:00,80.2,76.0,30.00,SE,144,0.0,1.0,87,0.00,,FEW,0.00,0.00,VWS V14.01,2013-08-29 05:02:00,
2013-08-29 01:05:00,80.2,76.0,30.00,SE,144,0.0,0.0,87,0.00,,FEW,0.00,0.00,VWS V14.01,2013-08-29 05:05:00,
2013-08-29 01:07:00,80.2,76.0,30.00,SE,144,0.0,0.0,87,0.00,,FEW,0.00,0.00,VWS V14.01,2013-08-29 05:07:00,
2013-08-29 01:08:00,80.2,76.0,30.00,SE,144,0.0,0.0,87,0.00,,FEW,0.00,0.00,VWS V14.01,2013-08-29 05:08:00,
2013-08-29 01:09:00,80.2,76.0,30.00,SE,144,0.0,0.0,87,0.00,,FEW,0.00,0.00,VWS V14.01,2013-08-29 05:09:00,
2013-08-29 01:10:00,80.2,76.0,30.00,SE,144,0.0,0.0,87,0.00,,FEW,0.00,0.00,VWS V14.01,2013-08-29 05:10:00,
2013-08-29 01:12:00,80.2,76.0,30.00,SE,144,0.0,0.0,87,0.00,,FEW,0.00,0.00,VWS V14.01,2013-08-29 05:12:00,
2013-08-29 01:13:00,80.1,75.9,30.00,SE,144,0.0,0.0,87,0.00,,FEW,0.00,0.00,VWS V14.01,2013-08-29 05:13:00,
2013-08-29 01:14:00,80.2,76.0,30.00,SE,144,0.0,0.0,87,0.00,,FEW,0.00,0.00,VWS V14.01,2013-08-29 05:14:00,
2013-08-29 01:15:00,80.2,76.0,30.00,SE,144,0.0,0.0,87,0.00,,FEW,0.00,0.00,VWS V14.01,2013-08-29 05:15:00,
2013-08-29 01:17:00,80.1,75.9,30.00,SE,144,0.0,0.0,87,0.00,,FEW,0.00,0.00,VWS V14.01,2013-08-29 05:17:00,
2013-08-29 01:18:00,80.2,76.0,29.99,SE,144,0.0,1.0,87,0.00,,FEW,0.00,0.00,VWS V14.01,2013-08-29 05:18:00,
2013-08-29 01:19:00,80.1,75.9,29.99,SE,144,0.0,1.0,87,0.00,,FEW,0.00,0.00,VWS V14.01,2013-08-29 05:19:00,
2013-08-29 01:20:00,80.1,75.9,29.99,SE,144,0.0,1.0,87,0.00,,FEW,0.00,0.00,VWS V14.01,2013-08-29 05:20:00,
2013-08-29 01:21:00,80.1,75.9,29.99,SE,144,0.0,1.0,87,0.00,,FEW,0.00,0.00,VWS V14.01,2013-08-29 05:21:00,
2013-08-29 01:22:00,80.1,75.9,29.99,SE,144,0.0,1.0,87,0.00,,FEW,0.00,0.00,VWS V14.01,2013-08-29 05:22:00,
2013-08-29 01:23:00,80.1,75.9,29.99,SE,144,0.0,0.0,87,0.00,,FEW,0.00,0.00,VWS V14.01,2013-08-29 05:23:00,
2013-08-29 01:25:00,80.1,75.9,29.99,SE,144,0.0,0.0,87,0.00,,FEW,0.00,0.00,VWS V14.01,2013-08-29 05:25:00,
2013-08-29 01:26:00,80.1,75.9,29.99,SE,144,0.0,2.0,87,0.00,,FEW,0.00,0.00,VWS V14.01,2013-08-29 05:26:00,
2013-08-29 01:27:00,80.1,75.9,29.99,SE,144,1.0,2.0,87,0.00,,FEW,0.00,0.00,VWS V14.01,2013-08-29 05:27:00,
2013-08-29 01:28:00,80.1,75.9,29.99,SE,144,0.0,2.0,87,0.00,,FEW,0.00,0.00,VWS V14.01,2013-08-29 05:28:00,
2013-08-29 01:30:00,80.1,76.2,29.99,SE,144,0.0,2.0,88,0.00,,FEW,0.00,0.00,VWS V14.01,2013-08-29 05:30:00,
2013-08-29 01:31:00,80.1,76.2,29.99,SE,144,0.0,2.0,88,0.00,,FEW,0.00,0.00,VWS V14.01,2013-08-29 05:31:00,
2013-08-29 01:32:00,80.1,76.2,29.99,SE,144,0.0,2.0,88,0.00,,FEW,0.00,0.00,VWS V14.01,2013-08-29 05:32:00,
2013-08-29 01:33:00,80.1,76.2,29.99,SE,144,0.0,2.0,88,0.00,,FEW,0.00,0.00,VWS V14.01,2013-08-29 05:33:00,
2013-08-29 01:36:00,80.1,76.2,29.99,SE,144,1.0,2.0,88,0.00,,FEW,0.00,0.00,VWS V14.01,2013-08-29 05:36:00,
2013-08-29 01:37:00,80.1,76.2,29.99,SE,144,0.0,2.0,88,0.00,,FEW,0.00,0.00,VWS V14.01,2013-08-29 05:37:00,
2013-08-29 01:38:00,80.1,76.2,29.99,SE,144,0.0,2.0,88,0.00,,FEW,0.00,0.00,VWS V14.01,2013-08-29 05:38:00,
2013-08-29 01:41:00,80.1,76.2,29.99,SE,144,0.0,2.0,88,0.00,,FEW,0.00,0.00,VWS V14.01,2013-08-29 05:41:00,
2013-08-29 01:42:00,80.1,76.2,29.99,SE,144,0.0,2.0,88,0.00,,FEW,0.00,0.00,VWS V14.01,2013-08-29 05:42:00,
2013-08-29 01:43:00,80.1,76.2,29.99,SE,144,0.0,2.0,88,0.00,,FEW,0.00,0.00,VWS V14.01,2013-08-29 05:43:00,
2013-08-29 01:47:00,80.1,76.2,29.99,SE,144,1.0,3.0,88,0.00,,FEW,0.00,0.00,VWS V14.01,2013-08-29 05:47:00,
2013-08-29 01:48:00,80.1,76.2,29.99,SE,144,0.0,3.0,88,0.00,,FEW,0.00,0.00,VWS V14.01,2013-08-29 05:48:00,
2013-08-29 01:49:00,80.1,76.2,29.99,SE,144,0.0,3.0,88,0.00,,FEW,0.00,0.00,VWS V14.01,2013-08-29 05:49:00,
2013-08-29 01:52:00,80.1,76.2,29.99,SE,144,0.0,3.0,88,0.00,,FEW,0.00,0.00,VWS V14.01,2013-08-29 05:52:00,
2013-08-29 01:53:00,80.1,76.2,29.99,SE,144,1.0,3.0,88,0.00,,FEW,0.00,0.00,VWS V14.01,2013-08-29 05:53:00,
2013-08-29 01:54:00,80.1,76.2,29.99,SE,144,0.0,0.0,88,0.00,,FEW,0.00,0.00,VWS V14.01,2013-08-29 05:54:00,
2013-08-29 01:55:00,80.1,76.2,29.99,SE,144,0.0,0.0,88,0.00,,FEW,0.00,0.00,VWS V14.01,2013-08-29 05:55:00,
2013-08-29 01:57:00,80.1,76.2,29.99,SE,144,0.0,0.0,88,0.00,,FEW,0.00,0.00,VWS V14.01,2013-08-29 05:57:00,
2013-08-29 01:58:00,80.1,76.2,29.99,SE,144,0.0,0.0,88,0.00,,FEW,0.00,0.00,VWS V14.01,2013-08-29 05:58:00,
2013-08-29 01:59:00,80.1,76.2,29.99,SE,144,1.0,1.0,88,0.00,,FEW,0.00,0.00,VWS V14.01,2013-08-29 05:59:00,
2013-08-29 02:01:00,80.1,76.2,29.99,SE,144,1.0,2.0,88,0.00,,FEW,0.00,0.00,VWS V14.01,2013-08-29 06:01:00,
2013-08-29 02:02:00,80.2,76.3,29.99,SE,144,1.0,2.0,88,0.00,,FEW,0.00,0.00,VWS V14.01,2013-08-29 06:02:00,
2013-08-29 02:03:00,80.2,76.3,29.99,SE,144,1.0,2.0,88,0.00,,FEW,0.00,0.00,VWS V14.01,2013-08-29 06:03:00,
2013-08-29 02:04:00,80.1,76.2,29.99,SE,144,2.0,2.0,88,0.00,,FEW,0.00,0.00,VWS V14.01,2013-08-29 06:04:00,
2013-08-29 02:06:00,80.1,76.2,29.99,SE,144,0.0,2.0,88,0.00,,FEW,0.00,0.00,VWS V14.01,2013-08-29 06:06:00,
2013-08-29 02:08:00,80.1,76.2,29.99,SE,144,0.0,3.0,88,0.00,,FEW,0.00,0.00,VWS V14.01,2013-08-29 06:08:00,
2013-08-29 02:09:00,80.1,76.2,29.99,SE,144,1.0,3.0,88,0.00,,FEW,0.00,0.00,VWS V14.01,2013-08-29 06:09:00,
2013-08-29 02:11:00,80.1,76.2,29.99,SE,144,2.0,3.0,88,0.00,,FEW,0.00,0.00,VWS V14.01,2013-08-29 06:11:00,
2013-08-29 02:13:00,80.1,76.2,29.99,SE,144,0.0,3.0,88,0.00,,FEW,0.00,0.00,VWS V14.01,2013-08-29 06:13:00,
2013-08-29 02:14:00,80.1,76.2,29.99,SE,144,1.0,1.0,88,0.00,,FEW,0.00,0.00,VWS V14.01,2013-08-29 06:14:00,
2013-08-29 02:18:00,80.2,76.3,29.99,SE,144,3.0,3.0,88,0.00,,FEW,0.00,0.00,VWS V14.01,2013-08-29 06:18:00,
2013-08-29 02:19:00,80.2,76.3,29.99,SE,144,2.0,3.0,88,0.00,,FEW,0.00,0.00,VWS V14.01,2013-08-29 06:19:00,
2013-08-29 02:23:00,80.3,76.4,29.99,SE,144,3.0,3.0,88,0.00,,FEW,0.00,0.00,VWS V14.01,2013-08-29 06:23:00,
2013-08-29 02:24:00,80.3,76.4,29.99,SE,144,1.0,3.0,88,0.00,,FEW,0.00,0.00,VWS V14.01,2013-08-29 06:24:00,
2013-08-29 02:28:00,80.3,76.4,29.99,South,171,1.0,3.0,88,0.00,,FEW,0.00,0.00,VWS V14.01,2013-08-29 06:28:00,
2013-08-29 02:29:00,80.3,76.4,29.99,South,171,0.0,3.0,88,0.00,,FEW,0.00,0.00,VWS V14.01,2013-08-29 06:29:00,
2013-08-29 02:30:00,80.3,76.4,29.99,SSE,165,0.0,3.0,88,0.00,,FEW,0.00,0.00,VWS V14.01,2013-08-29 06:30:00,
2013-08-29 02:33:00,80.3,76.4,29.99,South,171,0.0,0.0,88,0.00,,FEW,0.00,0.00,VWS V14.01,2013-08-29 06:33:00,
2013-08-29 02:34:00,80.3,76.4,29.99,South,171,0.0,0.0,88,0.00,,FEW,0.00,0.00,VWS V14.01,2013-08-29 06:34:00,
2013-08-29 02:35:00,80.3,76.4,29.99,South,172,2.0,2.0,88,0.00,,FEW,0.00,0.00,VWS V14.01,2013-08-29 06:35:00,
2013-08-29 02:38:00,80.3,76.4,29.99,SSW,198,2.0,3.0,88,0.00,,FEW,0.00,0.00,VWS V14.01,2013-08-29 06:38:00,
2013-08-29 02:39:00,80.3,76.4,29.99,SSE,155,2.0,3.0,88,0.00,,FEW,0.00,0.00,VWS V14.01,2013-08-29 06:39:00,
2013-08-29 02:40:00,80.3,76.4,29.99,South,172,1.0,3.0,88,0.00,,FEW,0.00,0.00,VWS V14.01,2013-08-29 06:40:00,
2013-08-29 02:41:00,80.3,76.4,29.99,South,172,2.0,3.0,88,0.00,,FEW,0.00,0.00,VWS V14.01,2013-08-29 06:41:00,
2013-08-29 02:43:00,80.3,76.4,29.99,South,172,0.0,1.0,88,0.00,,FEW,0.00,0.00,VWS V14.01,2013-08-29 06:43:00,
2013-08-29 02:44:00,80.3,76.4,29.99,South,172,0.0,1.0,88,0.00,,FEW,0.00,0.00,VWS V14.01,2013-08-29 06:44:00,
2013-08-29 02:45:00,80.3,76.4,29.99,South,172,0.0,1.0,88,0.00,,FEW,0.00,0.00,VWS V14.01,2013-08-29 06:45:00,
2013-08-29 02:46:00,80.3,76.4,29.99,South,172,1.0,1.0,88,0.00,,FEW,0.00,0.00,VWS V14.01,2013-08-29 06:46:00,
2013-08-29 02:49:00,80.3,76.4,29.98,South,180,1.0,2.0,88,0.00,,FEW,0.00,0.00,VWS V14.01,2013-08-29 06:49:00,
2013-08-29 02:50:00,80.4,76.5,29.98,South,184,1.0,3.0,88,0.00,,FEW,0.00,0.00,VWS V14.01,2013-08-29 06:50:00,
2013-08-29 02:51:00,80.4,76.5,29.98,South,184,1.0,3.0,88,0.00,,FEW,0.00,0.00,VWS V14.01,2013-08-29 06:51:00,
2013-08-29 02:54:00,80.4,76.5,29.98,South,184,0.0,1.0,88,0.00,,FEW,0.00,0.00,VWS V14.01,2013-08-29 06:54:00,
2013-08-29 02:55:00,80.4,76.5,29.98,South,184,0.0,1.0,88,0.00,,FEW,0.00,0.00,VWS V14.01,2013-08-29 06:55:00,
2013-08-29 02:56:00,80.3,76.4,29.98,South,187,2.0,2.0,88,0.00,,FEW,0.00,0.00,VWS V14.01,2013-08-29 06:56:00,
2013-08-29 02:59:00,80.3,76.4,29.98,South,180,1.0,2.0,88,0.00,,FEW,0.00,0.00,VWS V14.01,2013-08-29 06:59:00,
2013-08-29 03:00:00,80.4,76.5,29.98,South,180,0.0,2.0,88,0.00,,FEW,0.00,0.00,VWS V14.01,2013-08-29 07:00:00,
2013-08-29 03:01:00,80.4,76.5,29.98,South,180,1.0,2.0,88,0.00,,FEW,0.00,0.00,VWS V14.01,2013-08-29 07:01:00,
2013-08-29 03:02:00,80.3,76.4,29.98,South,180,0.0,2.0,88,0.00,,FEW,0.00,0.00,VWS V14.01,2013-08-29 07:02:00,
2013-08-29 03:04:00,80.4,76.5,29.98,South,180,0.0,0.0,88,0.00,,FEW,0.00,0.00,VWS V14.01,2013-08-29 07:04:00,
2013-08-29 03:05:00,80.4,76.5,29.98,South,180,0.0,1.0,88,0.00,,FEW,0.00,0.00,VWS V14.01,2013-08-29 07:05:00,
2013-08-29 03:06:00,80.4,76.5,29.98,South,180,0.0,1.0,88,0.00,,FEW,0.00,0.00,VWS V14.01,2013-08-29 07:06:00,
2013-08-29 03:07:00,80.4,76.5,29.98,South,180,0.0,1.0,88,0.00,,FEW,0.00,0.00,VWS V14.01,2013-08-29 07:07:00,
2013-08-29 03:09:00,80.4,76.5,29.98,South,180,1.0,1.0,88,0.00,,FEW,0.00,0.00,VWS V14.01,2013-08-29 07:09:00,
2013-08-29 03:10:00,80.4,76.5,29.98,South,184,2.0,3.0,88,0.00,,FEW,0.00,0.00,VWS V14.01,2013-08-29 07:10:00,
2013-08-29 03:12:00,80.4,76.5,29.98,South,184,2.0,3.0,88,0.00,,FEW,0.00,0.00,VWS V14.01,2013-08-29 07:12:00,
2013-08-29 03:14:00,80.4,76.5,29.98,South,184,1.0,1.0,88,0.00,,FEW,0.00,0.00,VWS V14.01,2013-08-29 07:14:00,
2013-08-29 03:15:00,80.4,76.5,29.98,South,184,0.0,1.0,88,0.00,,FEW,0.00,0.00,VWS V14.01,2013-08-29 07:15:00,
2013-08-29 03:17:00,80.5,76.6,29.98,South,184,0.0,1.0,88,0.00,,FEW,0.00,0.00,VWS V14.01,2013-08-29 07:17:00,
2013-08-29 03:19:00,80.5,76.6,29.97,South,184,0.0,1.0,88,0.00,,FEW,0.00,0.00,VWS V14.01,2013-08-29 07:19:00,
2013-08-29 03:20:00,80.5,76.6,29.97,South,184,1.0,1.0,88,0.00,,FEW,0.00,0.00,VWS V14.01,2013-08-29 07:20:00,
2013-08-29 03:22:00,80.5,76.6,29.97,South,186,0.0,1.0,88,0.00,,FEW,0.00,0.00,VWS V14.01,2013-08-29 07:22:00,
2013-08-29 03:23:00,80.5,76.6,29.97,South,186,0.0,1.0,88,0.00,,FEW,0.00,0.00,VWS V14.01,2013-08-29 07:23:00,
2013-08-29 03:24:00,80.5,76.6,29.97,South,186,1.0,1.0,88,0.00,,FEW,0.00,0.00,VWS V14.01,2013-08-29 07:24:00,
2013-08-29 03:25:00,80.5,76.6,29.97,South,186,1.0,2.0,88,0.00,,FEW,0.00,0.00,VWS V14.01,2013-08-29 07:25:00,
2013-08-29 03:27:00,80.5,76.6,29.97,South,186,1.0,2.0,88,0.00,,FEW,0.00,0.00,VWS V14.01,2013-08-29 07:27:00,
2013-08-29 03:28:00,80.5,76.6,29.97,South,186,0.0,2.0,88,0.00,,FEW,0.00,0.00,VWS V14.01,2013-08-29 07:28:00,
2013-08-29 03:29:00,80.5,76.6,29.97,South,186,1.0,2.0,88,0.00,,FEW,0.00,0.00,VWS V14.01,2013-08-29 07:29:00,
2013-08-29 03:30:00,80.6,76.7,29.97,South,186,0.0,2.0,88,0.00,,FEW,0.00,0.00,VWS V14.01,2013-08-29 07:30:00,
2013-08-29 03:32:00,80.6,76.7,29.97,South,186,0.0,2.0,88,0.00,,FEW,0.00,0.00,VWS V14.01,2013-08-29 07:32:00,
2013-08-29 03:33:00,80.6,76.7,29.97,South,186,0.0,1.0,88,0.00,,FEW,0.00,0.00,VWS V14.01,2013-08-29 07:33:00,
2013-08-29 03:34:00,80.6,76.7,29.97,South,186,1.0,1.0,88,0.00,,FEW,0.00,0.00,VWS V14.01,2013-08-29 07:34:00,
2013-08-29 03:35:00,80.6,76.7,29.97,South,186,0.0,1.0,88,0.00,,FEW,0.00,0.00,VWS V14.01,2013-08-29 07:35:00,
2013-08-29 03:36:00,80.6,76.7,29.97,South,186,1.0,1.0,88,0.00,,FEW,0.00,0.00,VWS V14.01,2013-08-29 07:36:00,
2013-08-29 03:38:00,80.6,76.7,29.97,South,188,1.0,3.0,88,0.00,,FEW,0.00,0.00,VWS V14.01,2013-08-29 07:38:00,
2013-08-29 03:39:00,80.7,76.8,29.97,South,188,1.0,3.0,88,0.00,,FEW,0.00,0.00,VWS V14.01,2013-08-29 07:39:00,
2013-08-29 03:40:00,80.7,76.8,29.97,South,188,1.0,3.0,88,0.00,,FEW,0.00,0.00,VWS V14.01,2013-08-29 07:40:00,
2013-08-29 03:41:00,80.6,76.7,29.97,South,188,1.0,3.0,88,0.00,,FEW,0.00,0.00,VWS V14.01,2013-08-29 07:41:00,
2013-08-29 03:43:00,80.7,76.8,29.97,South,188,0.0,2.0,88,0.00,,FEW,0.00,0.00,VWS V14.01,2013-08-29 07:43:00,
2013-08-29 03:44:00,80.7,76.8,29.97,South,188,1.0,2.0,88,0.00,,FEW,0.00,0.00,VWS V14.01,2013-08-29 07:44:00,
2013-08-29 03:45:00,80.7,76.8,29.97,South,188,0.0,2.0,88,0.00,,FEW,0.00,0.00,VWS V14.01,2013-08-29 07:45:00,
2013-08-29 03:46:00,80.7,76.5,29.97,South,188,0.0,2.0,87,0.00,,FEW,0.00,0.00,VWS V14.01,2013-08-29 07:46:00,
2013-08-29 03:48:00,80.7,76.5,29.97,South,188,0.0,2.0,87,0.00,,FEW,0.00,0.00,VWS V14.01,2013-08-29 07:48:00,
2013-08-29 03:49:00,80.7,76.5,29.97,South,188,0.0,2.0,87,0.00,,FEW,0.00,0.00,VWS V14.01,2013-08-29 07:49:00,
2013-08-29 03:50:00,80.7,76.5,29.97,SSW,193,3.0,3.0,87,0.00,,FEW,0.00,0.00,VWS V14.01,2013-08-29 07:50:00,
2013-08-29 03:51:00,80.7,76.5,29.97,SSW,195,3.0,3.0,87,0.00,,FEW,0.00,0.00,VWS V14.01,2013-08-29 07:51:00,
2013-08-29 03:54:00,80.7,76.5,29.97,SSW,211,3.0,4.0,87,0.00,,FEW,0.00,0.00,VWS V14.01,2013-08-29 07:54:00,
2013-08-29 03:55:00,80.7,76.5,29.97,SSW,211,0.0,4.0,87,0.00,,FEW,0.00,0.00,VWS V14.01,2013-08-29 07:55:00,
2013-08-29 03:56:00,80.7,76.5,29.97,SSW,203,2.0,5.0,87,0.00,,FEW,0.00,0.00,VWS V14.01,2013-08-29 07:56:00,
2013-08-29 03:59:00,80.8,76.6,29.97,SSW,194,2.0,5.0,87,0.00,,FEW,0.00,0.00,VWS V14.01,2013-08-29 07:59:00,
2013-08-29 04:00:00,80.8,76.6,29.97,SSW,194,0.0,5.0,87,0.00,,FEW,0.00,0.00,VWS V14.01,2013-08-29 08:00:00,
2013-08-29 04:01:00,80.9,76.7,29.97,SSW,194,0.0,5.0,87,0.00,,FEW,0.00,0.00,VWS V14.01,2013-08-29 08:01:00,
2013-08-29 04:04:00,80.9,76.7,29.97,SSW,195,0.0,0.0,87,0.00,,FEW,0.00,0.00,VWS V14.01,2013-08-29 08:04:00,
2013-08-29 04:05:00,80.9,76.7,29.97,SSW,194,0.0,1.0,87,0.00,,FEW,0.00,0.00,VWS V14.01,2013-08-29 08:05:00,
2013-08-29 04:06:00,80.9,76.7,29.97,SSW,194,0.0,1.0,87,0.00,,FEW,0.00,0.00,VWS V14.01,2013-08-29 08:06:00,
2013-08-29 04:07:00,80.9,76.7,29.97,SSW,195,2.0,2.0,87,0.00,,FEW,0.00,0.00,VWS V14.01,2013-08-29 08:07:00,
2013-08-29 04:09:00,80.9,76.7,29.97,SSW,195,0.0,2.0,87,0.00,,FEW,0.00,0.00,VWS V14.01,2013-08-29 08:09:00,
2013-08-29 04:10:00,80.9,76.7,29.97,SSW,195,2.0,2.0,87,0.00,,FEW,0.00,0.00,VWS V14.01,2013-08-29 08:10:00,
2013-08-29 04:11:00,80.9,76.7,29.97,SSW,194,1.0,2.0,87,0.00,,FEW,0.00,0.00,VWS V14.01,2013-08-29 08:11:00,
2013-08-29 04:12:00,80.9,76.7,29.97,SSW,195,0.0,2.0,87,0.00,,FEW,0.00,0.00,VWS V14.01,2013-08-29 08:12:00,
2013-08-29 04:14:00,80.9,76.7,29.97,SSW,194,0.0,0.0,87,0.00,,FEW,0.00,0.00,VWS V14.01,2013-08-29 08:14:00,
2013-08-29 04:15:00,80.9,76.7,29.97,SSW,195,0.0,0.0,87,0.00,,FEW,0.00,0.00,VWS V14.01,2013-08-29 08:15:00,
2013-08-29 04:16:00,80.9,76.7,29.97,SSW,194,0.0,0.0,87,0.00,,FEW,0.00,0.00,VWS V14.01,2013-08-29 08:16:00,
2013-08-29 04:17:00,80.9,76.7,29.96,SSW,194,0.0,1.0,87,0.00,,FEW,0.00,0.00,VWS V14.01,2013-08-29 08:17:00,
2013-08-29 04:19:00,80.9,76.7,29.96,SSW,194,0.0,1.0,87,0.00,,FEW,0.00,0.00,VWS V14.01,2013-08-29 08:19:00,
2013-08-29 04:21:00,80.8,76.6,29.96,SSW,194,0.0,1.0,87,0.00,,FEW,0.00,0.00,VWS V14.01,2013-08-29 08:21:00,
2013-08-29 04:23:00,80.8,76.6,29.96,SSW,195,0.0,1.0,87,0.00,,FEW,0.00,0.00,VWS V14.01,2013-08-29 08:23:00,
2013-08-29 04:24:00,80.8,76.6,29.96,SSW,194,0.0,1.0,87,0.00,,FEW,0.00,0.00,VWS V14.01,2013-08-29 08:24:00,
2013-08-29 04:26:00,80.8,76.6,29.96,SSW,195,0.0,1.0,87,0.00,,FEW,0.00,0.00,VWS V14.01,2013-08-29 08:26:00,
2013-08-29 04:27:00,80.8,76.6,29.96,SSW,194,0.0,1.0,87,0.00,,FEW,0.00,0.00,VWS V14.01,2013-08-29 08:27:00,
2013-08-29 04:28:00,80.8,76.6,29.96,SSW,194,0.0,1.0,87,0.00,,FEW,0.00,0.00,VWS V14.01,2013-08-29 08:28:00,
2013-08-29 04:29:00,80.8,76.6,29.96,SSW,195,0.0,1.0,87,0.00,,FEW,0.00,0.00,VWS V14.01,2013-08-29 08:29:00,
2013-08-29 04:31:00,80.7,76.5,29.96,SSW,194,0.0,1.0,87,0.00,,FEW,0.00,0.00,VWS V14.01,2013-08-29 08:31:00,
2013-08-29 04:32:00,80.7,76.5,29.96,SSW,195,0.0,1.0,87,0.00,,FEW,0.00,0.00,VWS V14.01,2013-08-29 08:32:00,
2013-08-29 04:33:00,80.7,76.5,29.96,SSW,194,0.0,0.0,87,0.00,,FEW,0.00,0.00,VWS V14.01,2013-08-29 08:33:00,
2013-08-29 04:34:00,80.7,76.5,29.96,SSW,194,0.0,0.0,87,0.00,,FEW,0.00,0.00,VWS V14.01,2013-08-29 08:34:00,
2013-08-29 04:36:00,80.7,76.5,29.96,SSW,194,0.0,0.0,87,0.00,,FEW,0.00,0.00,VWS V14.01,2013-08-29 08:36:00,
2013-08-29 04:37:00,80.7,76.5,29.96,SSW,194,0.0,0.0,87,0.00,,FEW,0.00,0.00,VWS V14.01,2013-08-29 08:37:00,
2013-08-29 04:38:00,80.6,76.4,29.96,SSW,194,0.0,0.0,87,0.00,,FEW,0.00,0.00,VWS V14.01,2013-08-29 08:38:00,
2013-08-29 04:39:00,80.6,76.4,29.96,SSW,194,1.0,1.0,87,0.00,,FEW,0.00,0.00,VWS V14.01,2013-08-29 08:39:00,
2013-08-29 04:42:00,80.6,76.4,29.96,SSW,194,0.0,1.0,87,0.00,,FEW,0.00,0.00,VWS V14.01,2013-08-29 08:42:00,
2013-08-29 04:43:00,80.5,76.3,29.96,SSW,195,0.0,0.0,87,0.00,,FEW,0.00,0.00,VWS V14.01,2013-08-29 08:43:00,
2013-08-29 04:44:00,80.5,76.3,29.96,SSW,194,0.0,0.0,87,0.00,,FEW,0.00,0.00,VWS V14.01,2013-08-29 08:44:00,
2013-08-29 04:47:00,80.5,76.3,29.96,SSW,194,0.0,0.0,87,0.00,,FEW,0.00,0.00,VWS V14.01,2013-08-29 08:47:00,
2013-08-29 04:49:00,80.5,76.3,29.96,SSW,195,0.0,0.0,87,0.00,,FEW,0.00,0.00,VWS V14.01,2013-08-29 08:49:00,
2013-08-29 04:52:00,80.4,76.2,29.96,SSW,194,0.0,1.0,87,0.00,,FEW,0.00,0.00,VWS V14.01,2013-08-29 08:52:00,
2013-08-29 04:54:00,80.4,76.2,29.96,SSW,195,0.0,0.0,87,0.00,,FEW,0.00,0.00,VWS V14.01,2013-08-29 08:54:00,
2013-08-29 04:55:00,80.3,76.1,29.96,SSW,194,0.0,0.0,87,0.00,,FEW,0.00,0.00,VWS V14.01,2013-08-29 08:55:00,
2013-08-29 04:57:00,80.3,76.1,29.96,SSW,195,0.0,0.0,87,0.00,,FEW,0.00,0.00,VWS V14.01,2013-08-29 08:57:00,
2013-08-29 04:59:00,80.3,76.1,29.96,SSW,194,0.0,0.0,87,0.00,,FEW,0.00,0.00,VWS V14.01,2013-08-29 08:59:00,
2013-08-29 05:00:00,80.3,76.1,29.96,SSW,194,0.0,0.0,87,0.00,,FEW,0.00,0.00,VWS V14.01,2013-08-29 09:00:00,
2013-08-29 05:01:00,80.3,76.1,29.96,SSW,194,0.0,0.0,87,0.00,,FEW,0.00,0.00,VWS V14.01,2013-08-29 09:01:00,
2013-08-29 05:02:00,80.3,76.1,29.95,SSW,194,0.0,0.0,87,0.00,,FEW,0.00,0.00,VWS V14.01,2013-08-29 09:02:00,
2013-08-29 05:04:00,80.2,76.0,29.95,SSW,194,0.0,0.0,87,0.00,,FEW,0.00,0.00,VWS V14.01,2013-08-29 09:04:00,
2013-08-29 05:06:00,80.2,76.0,29.95,SSW,194,0.0,0.0,87,0.00,,FEW,0.00,0.00,VWS V14.01,2013-08-29 09:06:00,
2013-08-29 05:07:00,80.2,76.0,29.95,SSW,194,0.0,0.0,87,0.00,,FEW,0.00,0.00,VWS V14.01,2013-08-29 09:07:00,
2013-08-29 05:08:00,80.2,76.0,29.95,SSW,194,0.0,0.0,87,0.00,,FEW,0.00,0.00,VWS V14.01,2013-08-29 09:08:00,
2013-08-29 05:09:00,80.1,75.9,29.95,SSW,195,0.0,1.0,87,0.00,,FEW,0.00,0.00,VWS V14.01,2013-08-29 09:09:00,
2013-08-29 05:11:00,80.1,75.9,29.95,SSW,194,1.0,1.0,87,0.00,,FEW,0.00,0.00,VWS V14.01,2013-08-29 09:11:00,
2013-08-29 05:12:00,80.1,75.9,29.95,SSW,194,1.0,1.0,87,0.00,,FEW,0.00,0.00,VWS V14.01,2013-08-29 09:12:00,
2013-08-29 05:13:00,80.0,75.8,29.95,SSW,195,0.0,1.0,87,0.00,,FEW,0.00,0.00,VWS V14.01,2013-08-29 09:13:00,
2013-08-29 05:14:00,80.0,75.8,29.95,SSW,194,1.0,1.0,87,0.00,,FEW,0.00,0.00,VWS V14.01,2013-08-29 09:14:00,
2013-08-29 05:16:00,80.0,75.8,29.95,SSW,195,0.0,1.0,87,0.00,,FEW,0.00,0.00,VWS V14.01,2013-08-29 09:16:00,
2013-08-29 05:17:00,79.9,75.7,29.95,SSW,195,0.0,1.0,87,0.00,,FEW,0.00,0.00,VWS V14.01,2013-08-29 09:17:00,
2013-08-29 05:18:00,79.9,76.0,29.95,SSW,195,0.0,1.0,88,0.00,,FEW,0.00,0.00,VWS V14.01,2013-08-29 09:18:00,
2013-08-29 05:19:00,79.9,76.0,29.95,SSW,194,0.0,1.0,88,0.00,,FEW,0.00,0.00,VWS V14.01,2013-08-29 09:19:00,
2013-08-29 05:21:00,79.8,75.9,29.95,SSW,195,1.0,1.0,88,0.00,,FEW,0.00,0.00,VWS V14.01,2013-08-29 09:21:00,
2013-08-29 05:22:00,79.8,75.9,29.95,SSW,194,0.0,1.0,88,0.00,,FEW,0.00,0.00,VWS V14.01,2013-08-29 09:22:00,
2013-08-29 05:23:00,79.8,75.9,29.95,SSW,194,0.0,1.0,88,0.00,,FEW,0.00,0.00,VWS V14.01,2013-08-29 09:23:00,
2013-08-29 05:24:00,79.8,75.9,29.95,SSW,194,0.0,0.0,88,0.00,,FEW,0.00,0.00,VWS V14.01,2013-08-29 09:24:00,
2013-08-29 05:27:00,79.7,75.8,29.95,SSW,194,1.0,1.0,88,0.00,,FEW,0.00,0.00,VWS V14.01,2013-08-29 09:27:00,
2013-08-29 05:28:00,79.7,75.8,29.95,SSW,195,1.0,1.0,88,0.00,,FEW,0.00,0.00,VWS V14.01,2013-08-29 09:28:00,
2013-08-29 05:29:00,79.7,75.8,29.95,SSW,203,1.0,2.0,88,0.00,,FEW,0.00,0.00,VWS V14.01,2013-08-29 09:29:00,
2013-08-29 05:30:00,79.7,75.8,29.95,SSW,202,0.0,2.0,88,0.00,,FEW,0.00,0.00,VWS V14.01,2013-08-29 09:30:00,
2013-08-29 05:32:00,79.7,75.8,29.95,SSW,202,0.0,2.0,88,0.00,,FEW,0.00,0.00,VWS V14.01,2013-08-29 09:32:00,
2013-08-29 05:33:00,79.6,75.7,29.95,SSW,202,0.0,1.0,88,0.00,,FEW,0.00,0.00,VWS V14.01,2013-08-29 09:33:00,
2013-08-29 05:34:00,79.6,75.7,29.95,SSW,202,0.0,1.0,88,0.00,,FEW,0.00,0.00,VWS V14.01,2013-08-29 09:34:00,
2013-08-29 05:35:00,79.6,75.7,29.95,SSW,202,0.0,1.0,88,0.00,,FEW,0.00,0.00,VWS V14.01,2013-08-29 09:35:00,
2013-08-29 05:37:00,79.6,75.7,29.95,SSW,203,0.0,1.0,88,0.00,,FEW,0.00,0.00,VWS V14.01,2013-08-29 09:37:00,
2013-08-29 05:38:00,79.5,75.6,29.95,SW,215,1.0,2.0,88,0.00,,FEW,0.00,0.00,VWS V14.01,2013-08-29 09:38:00,
2013-08-29 05:39:00,79.5,75.6,29.95,SW,215,0.0,2.0,88,0.00,,FEW,0.00,0.00,VWS V14.01,2013-08-29 09:39:00,
2013-08-29 05:40:00,79.5,75.6,29.95,SW,215,1.0,2.0,88,0.00,,FEW,0.00,0.00,VWS V14.01,2013-08-29 09:40:00,
2013-08-29 05:42:00,79.5,75.6,29.95,SW,215,2.0,2.0,88,0.00,,FEW,0.00,0.00,VWS V14.01,2013-08-29 09:42:00,
2013-08-29 05:43:00,79.5,75.6,29.95,SW,216,0.0,2.0,88,0.00,,FEW,0.00,0.00,VWS V14.01,2013-08-29 09:43:00,
2013-08-29 05:45:00,79.5,75.6,29.95,SW,221,1.0,2.0,88,0.00,,FEW,0.00,0.00,VWS V14.01,2013-08-29 09:45:00,
2013-08-29 05:47:00,79.4,75.5,29.96,SW,227,3.0,3.0,88,0.00,,FEW,0.00,0.00,VWS V14.01,2013-08-29 09:47:00,
2013-08-29 05:48:00,79.4,75.5,29.96,SW,227,1.0,3.0,88,0.00,,FEW,0.00,0.00,VWS V14.01,2013-08-29 09:48:00,
2013-08-29 05:49:00,79.4,75.5,29.96,SW,227,2.0,3.0,88,0.00,,FEW,0.00,0.00,VWS V14.01,2013-08-29 09:49:00,
2013-08-29 05:50:00,79.4,75.5,29.96,SW,227,1.0,3.0,88,0.00,,FEW,0.00,0.00,VWS V14.01,2013-08-29 09:50:00,
2013-08-29 05:53:00,79.4,75.5,29.96,SW,227,0.0,3.0,88,0.00,,FEW,0.00,0.00,VWS V14.01,2013-08-29 09:53:00,
2013-08-29 05:54:00,79.4,75.5,29.96,SW,227,0.0,1.0,88,0.00,,FEW,0.00,0.00,VWS V14.01,2013-08-29 09:54:00,
2013-08-29 05:55:00,79.4,75.9,29.96,SW,227,0.0,1.0,89,0.00,,FEW,0.00,0.00,VWS V14.01,2013-08-29 09:55:00,
2013-08-29 05:58:00,79.4,75.9,29.96,SW,227,0.0,1.0,89,0.00,,FEW,0.00,0.00,VWS V14.01,2013-08-29 09:58:00,
2013-08-29 05:59:00,79.3,75.8,29.96,SW,227,1.0,1.0,89,0.00,,FEW,0.00,0.00,VWS V14.01,2013-08-29 09:59:00,
2013-08-29 06:00:00,79.3,75.8,29.96,SW,227,0.0,1.0,89,0.00,,FEW,0.00,0.00,VWS V14.01,2013-08-29 10:00:00,
2013-08-29 06:03:00,79.3,75.8,29.96,SW,227,0.0,1.0,89,0.00,,FEW,0.00,0.00,VWS V14.01,2013-08-29 10:03:00,
2013-08-29 06:04:00,79.3,75.8,29.96,SW,227,0.0,1.0,89,0.00,,FEW,0.00,0.00,VWS V14.01,2013-08-29 10:04:00,
2013-08-29 06:05:00,79.3,75.8,29.96,SW,227,0.0,1.0,89,0.00,,FEW,0.00,0.00,VWS V14.01,2013-08-29 10:05:00,
2013-08-29 06:06:00,79.3,75.8,29.96,SW,227,0.0,1.0,89,0.00,,FEW,0.00,0.00,VWS V14.01,2013-08-29 10:06:00,
2013-08-29 06:08:00,79.3,75.8,29.96,SW,227,0.0,1.0,89,0.00,,FEW,0.00,0.00,VWS V14.01,2013-08-29 10:08:00,
2013-08-29 06:09:00,79.3,75.8,29.96,SW,227,1.0,1.0,89,0.00,,FEW,0.00,0.00,VWS V14.01,2013-08-29 10:09:00,
2013-08-29 06:10:00,79.3,75.8,29.96,SW,227,0.0,1.0,89,0.00,,FEW,0.00,0.00,VWS V14.01,2013-08-29 10:10:00,
2013-08-29 06:11:00,79.3,75.8,29.96,SW,227,0.0,1.0,89,0.00,,FEW,0.00,0.00,VWS V14.01,2013-08-29 10:11:00,
2013-08-29 06:14:00,79.3,75.8,29.96,SW,227,0.0,0.0,89,0.00,,FEW,0.00,0.00,VWS V14.01,2013-08-29 10:14:00,
2013-08-29 06:15:00,79.3,75.8,29.96,SW,227,1.0,1.0,89,0.00,,FEW,0.00,0.00,VWS V14.01,2013-08-29 10:15:00,
2013-08-29 06:16:00,79.3,75.8,29.96,SW,227,0.0,2.0,89,0.00,,FEW,0.00,0.00,VWS V14.01,2013-08-29 10:16:00,
2013-08-29 06:19:00,79.3,75.8,29.96,SW,227,0.0,2.0,89,0.00,,FEW,0.00,0.00,VWS V14.01,2013-08-29 10:19:00,
2013-08-29 06:20:00,79.3,75.8,29.96,SW,227,0.0,2.0,89,0.00,,FEW,0.00,0.00,VWS V14.01,2013-08-29 10:20:00,
2013-08-29 06:21:00,79.3,75.8,29.96,SW,227,0.0,2.0,89,0.00,,FEW,0.00,0.00,VWS V14.01,2013-08-29 10:21:00,
2013-08-29 06:24:00,79.2,75.7,29.96,SW,227,0.0,0.0,89,0.00,,FEW,0.00,0.00,VWS V14.01,2013-08-29 10:24:00,
2013-08-29 06:25:00,79.2,75.7,29.96,SW,227,0.0,0.0,89,0.00,,FEW,0.00,0.00,VWS V14.01,2013-08-29 10:25:00,
2013-08-29 06:26:00,79.2,75.7,29.96,SW,227,0.0,0.0,89,0.00,,FEW,0.00,0.00,VWS V14.01,2013-08-29 10:26:00,
2013-08-29 06:27:00,79.2,75.7,29.96,SW,227,0.0,0.0,89,0.00,,FEW,0.00,0.00,VWS V14.01,2013-08-29 10:27:00,
2013-08-29 06:30:00,79.2,75.7,29.96,SW,227,0.0,1.0,89,0.00,,FEW,0.00,0.00,VWS V14.01,2013-08-29 10:30:00,
2013-08-29 06:31:00,79.2,75.7,29.96,SW,227,1.0,1.0,89,0.00,,FEW,0.00,0.00,VWS V14.01,2013-08-29 10:31:00,
2013-08-29 06:32:00,79.2,75.7,29.96,SW,227,0.0,1.0,89,0.00,,FEW,0.00,0.00,VWS V14.01,2013-08-29 10:32:00,
2013-08-29 06:35:00,79.3,75.8,29.96,SW,227,0.0,1.0,89,0.00,,FEW,0.00,0.00,VWS V14.01,2013-08-29 10:35:00,
2013-08-29 06:36:00,79.3,75.8,29.96,SW,227,0.0,1.0,89,0.00,,FEW,0.00,0.00,VWS V14.01,2013-08-29 10:36:00,
2013-08-29 06:37:00,79.2,75.7,29.96,SW,227,0.0,1.0,89,0.00,,FEW,0.00,0.00,VWS V14.01,2013-08-29 10:37:00,
2013-08-29 06:38:00,79.2,75.7,29.96,SW,227,0.0,1.0,89,0.00,,FEW,0.00,0.00,VWS V14.01,2013-08-29 10:38:00,
2013-08-29 06:40:00,79.2,76.0,29.96,SW,227,0.0,1.0,90,0.00,,FEW,0.00,0.00,VWS V14.01,2013-08-29 10:40:00,
2013-08-29 06:41:00,79.2,76.0,29.96,SW,227,0.0,1.0,90,0.00,,FEW,0.00,0.00,VWS V14.01,2013-08-29 10:41:00,
2013-08-29 06:42:00,79.2,76.0,29.96,SW,227,0.0,1.0,90,0.00,,FEW,0.00,0.00,VWS V14.01,2013-08-29 10:42:00,
2013-08-29 06:43:00,79.2,76.0,29.96,SW,227,0.0,1.0,90,0.00,,FEW,0.00,0.00,VWS V14.01,2013-08-29 10:43:00,
2013-08-29 06:45:00,79.2,76.0,29.96,SW,227,0.0,0.0,90,0.00,,FEW,0.00,0.00,VWS V14.01,2013-08-29 10:45:00,
2013-08-29 06:46:00,79.2,76.0,29.96,SW,227,0.0,0.0,90,0.00,,FEW,0.00,0.00,VWS V14.01,2013-08-29 10:46:00,
2013-08-29 06:47:00,79.2,76.0,29.96,SW,227,0.0,0.0,90,0.00,,FEW,0.00,0.00,VWS V14.01,2013-08-29 10:47:00,
2013-08-29 06:48:00,79.2,76.0,29.96,SW,227,0.0,0.0,90,0.00,,FEW,0.00,0.00,VWS V14.01,2013-08-29 10:48:00,
2013-08-29 06:49:00,79.2,76.0,29.96,SW,227,0.0,0.0,90,0.00,,FEW,0.00,0.00,VWS V14.01,2013-08-29 10:49:00,
2013-08-29 06:51:00,79.2,76.0,29.96,SW,227,0.0,0.0,90,0.00,,FEW,0.00,0.00,VWS V14.01,2013-08-29 10:51:00,
2013-08-29 06:54:00,79.1,75.9,29.96,SW,227,0.0,0.0,90,0.00,,FEW,0.00,0.00,VWS V14.01,2013-08-29 10:54:00,
2013-08-29 06:56:00,79.1,75.9,29.96,SW,227,0.0,1.0,90,0.00,,FEW,0.00,0.00,VWS V14.01,2013-08-29 10:56:00,
2013-08-29 06:59:00,79.1,75.9,29.96,SW,227,0.0,1.0,90,0.00,,FEW,0.00,0.00,VWS V14.01,2013-08-29 10:59:00,
2013-08-29 07:00:00,79.1,75.9,29.96,SW,227,0.0,1.0,90,0.00,,FEW,0.00,0.00,VWS V14.01,2013-08-29 11:00:00,
2013-08-29 07:01:00,79.1,75.9,29.96,SW,234,1.0,1.0,90,0.00,,FEW,0.00,0.00,VWS V14.01,2013-08-29 11:01:00,
2013-08-29 07:04:00,79.1,75.9,29.96,WSW,247,1.0,1.0,90,0.00,,FEW,0.00,0.00,VWS V14.01,2013-08-29 11:04:00,
2013-08-29 07:05:00,79.1,75.9,29.96,WSW,247,0.0,1.0,90,0.00,,FEW,0.00,0.00,VWS V14.01,2013-08-29 11:05:00,
2013-08-29 07:06:00,79.1,75.9,29.96,WSW,247,0.0,1.0,90,0.00,,FEW,0.00,0.00,VWS V14.01,2013-08-29 11:06:00,
2013-08-29 07:10:00,79.1,75.9,29.96,WSW,247,0.0,1.0,90,0.00,,FEW,0.00,0.00,VWS V14.01,2013-08-29 11:10:00,
2013-08-29 07:11:00,79.0,75.8,29.96,WSW,247,0.0,1.0,90,0.00,,FEW,0.00,5.00,VWS V14.01,2013-08-29 11:11:00,
2013-08-29 07:15:00,79.0,75.8,29.96,WSW,247,0.0,0.0,90,0.00,,FEW,0.00,7.00,VWS V14.01,2013-08-29 11:15:00,
2013-08-29 07:16:00,79.0,75.8,29.96,WSW,247,0.0,0.0,90,0.00,,FEW,0.00,7.00,VWS V14.01,2013-08-29 11:16:00,
2013-08-29 07:17:00,79.0,75.8,29.96,WSW,247,0.0,0.0,90,0.00,,FEW,0.00,7.00,VWS V14.01,2013-08-29 11:17:00,
2013-08-29 07:20:00,79.0,75.8,29.97,WSW,247,0.0,0.0,90,0.00,,FEW,0.00,11.00,VWS V14.01,2013-08-29 11:20:00,
2013-08-29 07:21:00,78.9,75.7,29.97,WSW,247,0.0,0.0,90,0.00,,FEW,0.00,11.00,VWS V14.01,2013-08-29 11:21:00,
2013-08-29 07:22:00,78.9,75.7,29.97,WSW,247,0.0,0.0,90,0.00,,FEW,0.00,12.00,VWS V14.01,2013-08-29 11:22:00,
2013-08-29 07:25:00,78.9,75.7,29.97,WSW,247,0.0,0.0,90,0.00,,FEW,0.00,14.00,VWS V14.01,2013-08-29 11:25:00,
2013-08-29 07:26:00,78.9,75.7,29.97,WSW,247,0.0,1.0,90,0.00,,FEW,0.00,14.00,VWS V14.01,2013-08-29 11:26:00,
2013-08-29 07:27:00,78.9,75.7,29.97,WSW,247,0.0,1.0,90,0.00,,FEW,0.00,14.00,VWS V14.01,2013-08-29 11:27:00,
2013-08-29 07:31:00,79.0,76.2,29.97,WSW,247,0.0,1.0,91,0.00,,FEW,0.00,23.00,VWS V14.01,2013-08-29 11:31:00,
2013-08-29 07:32:00,79.0,76.2,29.98,WSW,247,0.0,1.0,91,0.00,,FEW,0.00,25.00,VWS V14.01,2013-08-29 11:32:00,
2013-08-29 07:33:00,79.0,76.2,29.98,WSW,247,0.0,0.0,91,0.00,,FEW,0.00,26.00,VWS V14.01,2013-08-29 11:33:00,
2013-08-29 07:36:00,79.0,76.2,29.98,WSW,247,0.0,0.0,91,0.00,,FEW,0.00,28.00,VWS V14.01,2013-08-29 11:36:00,
2013-08-29 07:37:00,79.0,76.2,29.98,WSW,247,0.0,0.0,91,0.00,,FEW,0.00,28.00,VWS V14.01,2013-08-29 11:37:00,
2013-08-29 07:40:00,79.0,76.2,29.98,WSW,247,0.0,0.0,91,0.00,,FEW,0.00,33.00,VWS V14.01,2013-08-29 11:40:00,
2013-08-29 07:41:00,79.0,76.2,29.98,WSW,247,1.0,1.0,91,0.00,,FEW,0.00,35.00,VWS V14.01,2013-08-29 11:41:00,
2013-08-29 07:42:00,79.0,76.2,29.98,WSW,247,2.0,2.0,91,0.00,,FEW,0.00,35.00,VWS V14.01,2013-08-29 11:42:00,
2013-08-29 07:43:00,79.1,76.2,29.98,WSW,247,0.0,2.0,91,0.00,,FEW,0.00,37.00,VWS V14.01,2013-08-29 11:43:00,
2013-08-29 07:45:00,79.1,76.2,29.98,WSW,247,0.0,1.0,91,0.00,,FEW,0.00,37.00,VWS V14.01,2013-08-29 11:45:00,
2013-08-29 07:46:00,79.1,76.2,29.98,WSW,247,0.0,1.0,91,0.00,,FEW,0.00,51.00,VWS V14.01,2013-08-29 11:46:00,
2013-08-29 07:47:00,79.1,76.2,29.98,WSW,247,0.0,1.0,91,0.00,,FEW,0.00,51.00,VWS V14.01,2013-08-29 11:47:00,
2013-08-29 07:48:00,79.1,76.2,29.98,WSW,247,0.0,1.0,91,0.00,,FEW,0.00,56.00,VWS V14.01,2013-08-29 11:48:00,
2013-08-29 07:51:00,79.2,76.3,29.98,WSW,247,2.0,2.0,91,0.00,,FEW,0.00,53.00,VWS V14.01,2013-08-29 11:51:00,
2013-08-29 07:52:00,79.2,76.3,29.98,WSW,247,1.0,2.0,91,0.00,,FEW,0.00,58.00,VWS V14.01,2013-08-29 11:52:00,
2013-08-29 07:53:00,79.2,76.3,29.98,WSW,247,0.0,2.0,91,0.00,,FEW,0.00,51.00,VWS V14.01,2013-08-29 11:53:00,
2013-08-29 07:56:00,79.3,76.4,29.98,NNW,338,1.0,3.0,91,0.00,,FEW,0.00,91.00,VWS V14.01,2013-08-29 11:56:00,
2013-08-29 07:57:00,79.4,76.6,29.98,NNW,338,2.0,3.0,91,0.00,,FEW,0.00,69.00,VWS V14.01,2013-08-29 11:57:00,
2013-08-29 07:59:00,79.4,76.6,29.98,North,350,1.0,3.0,91,0.00,,FEW,0.00,72.00,VWS V14.01,2013-08-29 11:59:00,
2013-08-29 08:01:00,79.5,76.3,29.98,NNW,347,1.0,3.0,90,0.00,,FEW,0.00,77.00,VWS V14.01,2013-08-29 12:01:00,
2013-08-29 08:02:00,79.5,76.3,29.98,NNW,347,1.0,3.0,90,0.00,,FEW,0.00,79.00,VWS V14.01,2013-08-29 12:02:00,
2013-08-29 08:04:00,79.6,76.4,29.99,NNW,347,3.0,3.0,90,0.00,,FEW,0.00,86.00,VWS V14.01,2013-08-29 12:04:00,
2013-08-29 08:07:00,79.7,76.5,29.99,North,350,0.0,3.0,90,0.00,,FEW,0.00,98.00,VWS V14.01,2013-08-29 12:07:00,
2013-08-29 08:09:00,79.8,76.6,29.99,NNW,348,1.0,3.0,90,0.00,,FEW,0.00,105.00,VWS V14.01,2013-08-29 12:09:00,
2013-08-29 08:12:00,79.9,76.7,29.99,NNW,348,1.0,3.0,90,0.00,,FEW,0.00,113.00,VWS V14.01,2013-08-29 12:12:00,
2013-08-29 08:14:00,80.0,76.8,29.99,NNW,348,0.0,2.0,90,0.00,,FEW,0.00,118.00,VWS V14.01,2013-08-29 12:14:00,
2013-08-29 08:15:00,80.0,76.8,29.99,NNW,348,1.0,2.0,90,0.00,,FEW,0.00,121.00,VWS V14.01,2013-08-29 12:15:00,
2013-08-29 08:17:00,80.1,76.9,29.99,NNW,346,3.0,3.0,90,0.00,,FEW,0.00,183.00,VWS V14.01,2013-08-29 12:17:00,
2013-08-29 08:18:00,80.1,76.9,30.00,NNW,346,1.0,3.0,90,0.00,,FEW,0.00,183.00,VWS V14.01,2013-08-29 12:18:00,
2013-08-29 08:19:00,80.1,76.9,30.00,NNW,346,1.0,3.0,90,0.00,,FEW,0.00,234.00,VWS V14.01,2013-08-29 12:19:00,
2013-08-29 08:20:00,80.2,77.0,30.00,NNW,344,3.0,3.0,90,0.00,,FEW,0.00,274.00,VWS V14.01,2013-08-29 12:20:00,
2013-08-29 08:22:00,80.2,76.7,30.00,NNW,342,3.0,4.0,89,0.00,,FEW,0.00,294.00,VWS V14.01,2013-08-29 12:22:00,
2013-08-29 08:23:00,80.3,76.8,30.00,NNW,331,1.0,1.0,89,0.00,,FEW,0.00,287.00,VWS V14.01,2013-08-29 12:23:00,
2013-08-29 08:24:00,80.3,76.8,30.00,North,5,3.0,3.0,89,0.00,,FEW,0.00,276.00,VWS V14.01,2013-08-29 12:24:00,
2013-08-29 08:25:00,80.4,76.9,30.00,North,355,2.0,4.0,89,0.00,,FEW,0.00,274.00,VWS V14.01,2013-08-29 12:25:00,
2013-08-29 08:26:00,80.5,77.0,30.00,NW,325,3.0,4.0,89,0.00,,FEW,0.00,274.00,VWS V14.01,2013-08-29 12:26:00,
2013-08-29 08:27:00,80.5,77.0,30.00,North,351,3.0,4.0,89,0.00,,FEW,0.00,294.00,VWS V14.01,2013-08-29 12:27:00,
2013-08-29 08:28:00,80.6,77.1,30.00,NNE,17,2.0,4.0,89,0.00,,FEW,0.00,301.00,VWS V14.01,2013-08-29 12:28:00,
2013-08-29 08:29:00,80.7,77.2,30.00,NNE,16,0.0,4.0,89,0.00,,FEW,0.00,301.00,VWS V14.01,2013-08-29 12:29:00,
2013-08-29 08:31:00,80.8,77.3,30.00,North,355,3.0,4.0,89,0.00,,FEW,0.00,257.00,VWS V14.01,2013-08-29 12:31:00,
2013-08-29 08:32:00,80.9,77.0,30.00,North,5,2.0,4.0,88,0.00,,FEW,0.00,246.00,VWS V14.01,2013-08-29 12:32:00,
2013-08-29 08:33:00,80.9,77.0,29.99,North,360,2.0,4.0,88,0.00,,FEW,0.00,285.00,VWS V14.01,2013-08-29 12:33:00,
2013-08-29 08:34:00,81.0,77.1,29.99,North,355,1.0,3.0,88,0.00,,FEW,0.00,114.00,VWS V14.01,2013-08-29 12:34:00,
2013-08-29 08:36:00,81.1,77.2,29.99,North,355,1.0,3.0,88,0.00,,FEW,0.00,114.00,VWS V14.01,2013-08-29 12:36:00,
2013-08-29 08:37:00,81.2,77.3,29.99,North,355,1.0,3.0,88,0.00,,FEW,0.00,116.00,VWS V14.01,2013-08-29 12:37:00,
2013-08-29 08:38:00,81.3,77.4,29.99,North,355,0.0,3.0,88,0.00,,FEW,0.00,127.00,VWS V14.01,2013-08-29 12:38:00,
2013-08-29 08:39:00,81.3,77.4,29.99,North,355,1.0,3.0,88,0.00,,FEW,0.00,156.00,VWS V14.01,2013-08-29 12:39:00,
2013-08-29 08:42:00,81.6,77.4,29.99,NNW,329,3.0,4.0,87,0.00,,FEW,0.00,121.00,VWS V14.01,2013-08-29 12:42:00,
2013-08-29 08:43:00,81.6,77.4,29.99,NNW,345,3.0,4.0,87,0.00,,FEW,0.00,130.00,VWS V14.01,2013-08-29 12:43:00,
2013-08-29 08:44:00,81.6,77.4,29.99,NNW,346,2.0,3.0,87,0.00,,FEW,0.00,202.00,VWS V14.01,2013-08-29 12:44:00,
2013-08-29 08:47:00,81.8,77.2,29.99,North,360,3.0,5.0,86,0.00,,FEW,0.00,146.00,VWS V14.01,2013-08-29 12:47:00,
2013-08-29 08:48:00,81.9,77.3,29.99,North,360,3.0,5.0,86,0.00,,FEW,0.00,146.00,VWS V14.01,2013-08-29 12:48:00,
2013-08-29 08:49:00,81.9,77.3,29.99,NNW,340,3.0,5.0,86,0.00,,FEW,0.00,221.00,VWS V14.01,2013-08-29 12:49:00,
2013-08-29 08:50:00,81.9,77.3,29.99,North,5,3.0,5.0,86,0.00,,FEW,0.00,274.00,VWS V14.01,2013-08-29 12:50:00,
2013-08-29 08:52:00,82.0,77.1,29.99,NNW,333,2.0,5.0,85,0.00,,FEW,0.00,316.00,VWS V14.01,2013-08-29 12:52:00,
2013-08-29 08:53:00,82.1,77.2,29.99,North,10,1.0,5.0,85,0.00,,FEW,0.00,396.00,VWS V14.01,2013-08-29 12:53:00,
2013-08-29 08:54:00,82.1,77.2,29.99,North,10,3.0,4.0,85,0.00,,FEW,0.00,438.00,VWS V14.01,2013-08-29 12:54:00,
2013-08-29 08:55:00,82.1,77.2,29.99,North,11,1.0,4.0,85,0.00,,FEW,0.00,438.00,VWS V14.01,2013-08-29 12:55:00,
2013-08-29 08:57:00,82.3,77.3,29.99,NW,321,2.0,4.0,85,0.00,,FEW,0.00,376.00,VWS V14.01,2013-08-29 12:57:00,
2013-08-29 08:58:00,82.3,77.3,29.99,NNW,329,2.0,4.0,85,0.00,,FEW,0.00,457.00,VWS V14.01,2013-08-29 12:58:00,
2013-08-29 08:59:00,82.4,77.4,29.99,North,11,1.0,4.0,85,0.00,,FEW,0.00,468.00,VWS V14.01,2013-08-29 12:59:00,
2013-08-29 09:00:00,82.4,77.4,29.99,North,11,1.0,4.0,85,0.00,,FEW,0.00,468.00,VWS V14.01,2013-08-29 13:00:00,
2013-08-29 09:02:00,82.7,77.7,29.99,NNE,16,2.0,4.0,85,0.00,,FEW,0.00,448.00,VWS V14.01,2013-08-29 13:02:00,
2013-08-29 09:03:00,82.8,77.8,29.99,North,355,4.0,4.0,85,0.00,,FEW,0.00,394.00,VWS V14.01,2013-08-29 13:03:00,
2013-08-29 09:04:00,82.9,77.6,29.99,North,360,4.0,4.0,84,0.00,,FEW,0.00,394.00,VWS V14.01,2013-08-29 13:04:00,
2013-08-29 09:05:00,82.9,77.6,29.99,North,349,2.0,5.0,84,0.00,,FEW,0.00,475.00,VWS V14.01,2013-08-29 13:05:00,
2013-08-29 09:06:00,83.0,77.7,29.99,North,349,2.0,5.0,84,0.00,,FEW,0.00,473.00,VWS V14.01,2013-08-29 13:06:00,
2013-08-29 09:07:00,83.0,77.7,29.99,North,350,3.0,5.0,84,0.00,,FEW,0.00,489.00,VWS V14.01,2013-08-29 13:07:00,
2013-08-29 09:08:00,83.1,77.8,29.99,North,355,5.0,5.0,84,0.00,,FEW,0.00,501.00,VWS V14.01,2013-08-29 13:08:00,
2013-08-29 09:10:00,83.3,78.0,29.99,NNE,13,2.0,5.0,84,0.00,,FEW,0.00,520.00,VWS V14.01,2013-08-29 13:10:00,
2013-08-29 09:11:00,83.3,78.0,29.99,NNE,13,3.0,5.0,84,0.00,,FEW,0.00,527.00,VWS V14.01,2013-08-29 13:11:00,
2013-08-29 09:12:00,83.5,77.8,29.99,NNE,17,2.0,5.0,83,0.00,,FEW,0.00,527.00,VWS V14.01,2013-08-29 13:12:00,
2013-08-29 09:13:00,83.5,77.8,29.99,NNE,13,3.0,5.0,83,0.00,,FEW,0.00,527.00,VWS V14.01,2013-08-29 13:13:00,
2013-08-29 09:15:00,83.5,77.4,29.99,NNE,17,4.0,5.0,82,0.00,,FEW,0.00,315.00,VWS V14.01,2013-08-29 13:15:00,
2013-08-29 09:16:00,83.6,77.5,29.99,North,360,3.0,5.0,82,0.00,,FEW,0.00,315.00,VWS V14.01,2013-08-29 13:16:00,
2013-08-29 09:17:00,83.6,77.5,29.99,NNE,13,2.0,5.0,82,0.00,,FEW,0.00,425.00,VWS V14.01,2013-08-29 13:17:00,
2013-08-29 09:18:00,83.7,77.6,29.99,NNE,19,2.0,6.0,82,0.00,,FEW,0.00,338.00,VWS V14.01,2013-08-29 13:18:00,
2013-08-29 09:20:00,83.8,77.7,29.99,North,349,5.0,6.0,82,0.00,,FEW,0.00,311.00,VWS V14.01,2013-08-29 13:20:00,
2013-08-29 09:21:00,83.8,77.7,29.99,NNW,344,4.0,6.0,82,0.00,,FEW,0.00,311.00,VWS V14.01,2013-08-29 13:21:00,
2013-08-29 09:22:00,83.9,77.8,29.99,North,350,1.0,6.0,82,0.00,,FEW,0.00,353.00,VWS V14.01,2013-08-29 13:22:00,
2013-08-29 09:23:00,83.9,77.4,29.99,North,355,1.0,6.0,81,0.00,,FEW,0.00,353.00,VWS V14.01,2013-08-29 13:23:00,
2013-08-29 09:26:00,84.0,77.5,29.99,North,355,0.0,5.0,81,0.00,,FEW,0.00,311.00,VWS V14.01,2013-08-29 13:26:00,
2013-08-29 09:28:00,84.1,77.6,29.99,NNE,13,1.0,5.0,81,0.00,,FEW,0.00,315.00,VWS V14.01,2013-08-29 13:28:00,
2013-08-29 09:29:00,84.1,77.6,29.99,NNW,345,6.0,6.0,81,0.00,,FEW,0.00,295.00,VWS V14.01,2013-08-29 13:29:00,
2013-08-29 09:31:00,83.9,77.4,29.99,NNW,337,5.0,6.0,81,0.00,,FEW,0.00,255.00,VWS V14.01,2013-08-29 13:31:00,
2013-08-29 09:33:00,83.9,77.4,30.00,NNW,335,4.0,6.0,81,0.00,,FEW,0.00,251.00,VWS V14.01,2013-08-29 13:33:00,
2013-08-29 09:35:00,83.9,77.4,30.00,NNE,30,3.0,4.0,81,0.00,,FEW,0.00,269.00,VWS V14.01,2013-08-29 13:35:00,
2013-08-29 09:36:00,83.9,77.4,30.00,NNE,23,1.0,4.0,81,0.00,,FEW,0.00,269.00,VWS V14.01,2013-08-29 13:36:00,
2013-08-29 09:38:00,83.8,77.3,30.00,NNW,348,2.0,4.0,81,0.00,,FEW,0.00,272.00,VWS V14.01,2013-08-29 13:38:00,
2013-08-29 09:39:00,83.8,77.3,30.00,NNE,26,2.0,4.0,81,0.00,,FEW,0.00,279.00,VWS V14.01,2013-08-29 13:39:00,
2013-08-29 09:40:00,83.9,77.4,30.00,NNE,19,2.0,4.0,81,0.00,,FEW,0.00,274.00,VWS V14.01,2013-08-29 13:40:00,
2013-08-29 09:41:00,83.9,77.4,30.00,NNE,23,3.0,4.0,81,0.00,,FEW,0.00,274.00,VWS V14.01,2013-08-29 13:41:00,
2013-08-29 09:43:00,83.8,77.3,30.00,NNW,347,4.0,5.0,81,0.00,,FEW,0.00,265.00,VWS V14.01,2013-08-29 13:43:00,
2013-08-29 09:44:00,83.8,77.3,30.00,NNW,342,3.0,5.0,81,0.00,,FEW,0.00,364.00,VWS V14.01,2013-08-29 13:44:00,
2013-08-29 09:45:00,83.8,77.3,30.00,North,5,2.0,5.0,81,0.00,,FEW,0.00,267.00,VWS V14.01,2013-08-29 13:45:00,
2013-08-29 09:46:00,83.8,77.3,30.00,North,360,4.0,5.0,81,0.00,,FEW,0.00,258.00,VWS V14.01,2013-08-29 13:46:00,
2013-08-29 09:47:00,83.7,77.2,30.00,North,350,4.0,5.0,81,0.00,,FEW,0.00,260.00,VWS V14.01,2013-08-29 13:47:00,
2013-08-29 09:48:00,83.7,77.2,30.00,North,351,3.0,5.0,81,0.00,,FEW,0.00,265.00,VWS V14.01,2013-08-29 13:48:00,
2013-08-29 09:49:00,83.7,77.2,30.00,NNW,337,3.0,5.0,81,0.00,,FEW,0.00,251.00,VWS V14.01,2013-08-29 13:49:00,
2013-08-29 09:50:00,83.6,77.2,30.00,NNW,348,3.0,5.0,81,0.00,,FEW,0.00,251.00,VWS V14.01,2013-08-29 13:50:00,
2013-08-29 09:51:00,83.6,77.2,30.00,North,5,1.0,5.0,81,0.00,,FEW,0.00,257.00,VWS V14.01,2013-08-29 13:51:00,
2013-08-29 09:53:00,83.7,77.2,30.00,North,360,4.0,5.0,81,0.00,,FEW,0.00,260.00,VWS V14.01,2013-08-29 13:53:00,
2013-08-29 09:54:00,83.7,77.2,30.00,NNE,15,2.0,4.0,81,0.00,,FEW,0.00,250.00,VWS V14.01,2013-08-29 13:54:00,
2013-08-29 09:55:00,83.7,77.2,30.00,NW,325,2.0,4.0,81,0.00,,FEW,0.00,246.00,VWS V14.01,2013-08-29 13:55:00,
2013-08-29 09:56:00,83.7,77.2,30.00,NNW,342,2.0,4.0,81,0.00,,FEW,0.00,246.00,VWS V14.01,2013-08-29 13:56:00,
2013-08-29 09:58:00,83.8,77.3,30.00,NNW,338,2.0,4.0,81,0.00,,FEW,0.00,239.00,VWS V14.01,2013-08-29 13:58:00,
2013-08-29 09:59:00,83.8,77.3,30.00,NW,321,3.0,4.0,81,0.00,,FEW,0.00,237.00,VWS V14.01,2013-08-29 13:59:00,
2013-08-29 10:01:00,83.7,77.2,30.00,NNW,341,2.0,5.0,81,0.00,,FEW,0.00,230.00,VWS V14.01,2013-08-29 14:01:00,
2013-08-29 10:03:00,83.6,77.2,30.01,NNW,344,5.0,5.0,81,0.00,,FEW,0.00,227.00,VWS V14.01,2013-08-29 14:03:00,
2013-08-29 10:04:00,83.6,77.2,30.01,North,10,2.0,5.0,81,0.00,,FEW,0.00,230.00,VWS V14.01,2013-08-29 14:04:00,
2013-08-29 10:06:00,83.5,77.1,30.01,North,355,2.0,5.0,81,0.00,,FEW,0.00,229.00,VWS V14.01,2013-08-29 14:06:00,
2013-08-29 10:07:00,83.5,77.1,30.01,North,5,1.0,5.0,81,0.00,,FEW,0.00,230.00,VWS V14.01,2013-08-29 14:07:00,
2013-08-29 10:09:00,83.6,77.2,30.01,NNE,22,1.0,5.0,81,0.00,,FEW,0.00,229.00,VWS V14.01,2013-08-29 14:09:00,
2013-08-29 10:11:00,83.6,77.2,30.01,NNE,22,2.0,5.0,81,0.00,,FEW,0.00,229.00,VWS V14.01,2013-08-29 14:11:00,
2013-08-29 10:12:00,83.7,77.2,30.01,NNW,344,4.0,5.0,81,0.00,,FEW,0.00,227.00,VWS V14.01,2013-08-29 14:12:00,
2013-08-29 10:14:00,83.7,77.2,30.01,NNE,16,4.0,4.0,81,0.00,,FEW,0.00,229.00,VWS V14.01,2013-08-29 14:14:00,
2013-08-29 10:16:00,83.6,77.2,30.01,North,355,2.0,4.0,81,0.00,,FEW,0.00,236.00,VWS V14.01,2013-08-29 14:16:00,
2013-08-29 10:17:00,83.6,77.2,30.01,North,355,1.0,4.0,81,0.00,,FEW,0.00,246.00,VWS V14.01,2013-08-29 14:17:00,
2013-08-29 10:18:00,83.6,77.2,30.01,North,5,3.0,4.0,81,0.00,,FEW,0.00,239.00,VWS V14.01,2013-08-29 14:18:00,
2013-08-29 10:19:00,83.6,77.2,30.01,North,5,1.0,4.0,81,0.00,,FEW,0.00,251.00,VWS V14.01,2013-08-29 14:19:00,
2013-08-29 10:20:00,83.6,77.2,30.01,NNE,17,3.0,4.0,81,0.00,,FEW,0.00,258.00,VWS V14.01,2013-08-29 14:20:00,
2013-08-29 10:22:00,83.8,77.7,30.01,NNE,29,2.0,4.0,82,0.00,,FEW,0.00,271.00,VWS V14.01,2013-08-29 14:22:00,
2013-08-29 10:23:00,83.8,77.7,30.01,NNE,29,1.0,2.0,82,0.00,,FEW,0.00,348.00,VWS V14.01,2013-08-29 14:23:00,
2013-08-29 10:24:00,83.9,77.8,30.01,NNE,29,0.0,2.0,82,0.00,,FEW,0.00,297.00,VWS V14.01,2013-08-29 14:24:00,
2013-08-29 10:25:00,83.9,77.8,30.01,NNE,29,0.0,2.0,82,0.00,,FEW,0.00,346.00,VWS V14.01,2013-08-29 14:25:00,
2013-08-29 10:27:00,84.1,78.4,30.01,NE,46,0.0,3.0,83,0.00,,FEW,0.00,316.00,VWS V14.01,2013-08-29 14:27:00,
2013-08-29 10:28:00,84.2,78.1,30.01,NE,43,2.0,5.0,82,0.00,,FEW,0.00,320.00,VWS V14.01,2013-08-29 14:28:00,
2013-08-29 10:29:00,84.2,78.1,30.01,NE,42,3.0,5.0,82,0.00,,FEW,0.00,320.00,VWS V14.01,2013-08-29 14:29:00,
2013-08-29 10:30:00,84.2,78.1,30.01,NE,41,2.0,5.0,82,0.00,,FEW,0.00,320.00,VWS V14.01,2013-08-29 14:30:00,
2013-08-29 10:32:00,84.3,78.2,30.01,NE,50,2.0,5.0,82,0.00,,FEW,0.00,304.00,VWS V14.01,2013-08-29 14:32:00,
2013-08-29 10:34:00,84.3,78.2,30.01,NE,50,0.0,2.0,82,0.00,,FEW,0.00,348.00,VWS V14.01,2013-08-29 14:34:00,
2013-08-29 10:35:00,84.4,78.3,30.01,NE,50,2.0,3.0,82,0.00,,FEW,0.00,338.00,VWS V14.01,2013-08-29 14:35:00,
2013-08-29 10:37:00,84.4,78.7,30.01,NE,40,3.0,4.0,83,0.00,,FEW,0.00,338.00,VWS V14.01,2013-08-29 14:37:00,
2013-08-29 10:39:00,84.5,78.8,30.01,NE,38,1.0,4.0,83,0.00,,FEW,0.00,417.00,VWS V14.01,2013-08-29 14:39:00,
2013-08-29 10:40:00,84.5,78.8,30.01,NE,42,0.0,4.0,83,0.00,,FEW,0.00,380.00,VWS V14.01,2013-08-29 14:40:00,
2013-08-29 10:42:00,84.8,79.1,30.01,NE,51,1.0,4.0,83,0.00,,FEW,0.00,380.00,VWS V14.01,2013-08-29 14:42:00,
2013-08-29 10:44:00,84.9,79.2,30.01,NE,51,1.0,3.0,83,0.00,,FEW,0.00,380.00,VWS V14.01,2013-08-29 14:44:00,
2013-08-29 10:45:00,85.0,78.9,30.01,NE,51,1.0,3.0,82,0.00,,FEW,0.00,563.00,VWS V14.01,2013-08-29 14:45:00,
2013-08-29 10:46:00,85.0,78.9,30.01,NE,51,0.0,3.0,82,0.00,,FEW,0.00,580.00,VWS V14.01,2013-08-29 14:46:00,
2013-08-29 10:47:00,85.1,79.0,30.01,NE,51,0.0,3.0,82,0.00,,FEW,0.00,527.00,VWS V14.01,2013-08-29 14:47:00,
2013-08-29 10:49:00,85.3,78.8,30.01,ENE,66,1.0,3.0,81,0.00,,FEW,0.00,387.00,VWS V14.01,2013-08-29 14:49:00,
2013-08-29 10:50:00,85.3,78.8,30.01,ENE,66,0.0,3.0,81,0.00,,FEW,0.00,482.00,VWS V14.01,2013-08-29 14:50:00,
2013-08-29 10:52:00,85.4,78.9,30.01,ESE,114,1.0,3.0,81,0.00,,FEW,0.00,401.00,VWS V14.01,2013-08-29 14:52:00,
2013-08-29 10:53:00,85.4,78.9,30.01,ESE,114,0.0,3.0,81,0.00,,FEW,0.00,401.00,VWS V14.01,2013-08-29 14:53:00,
2013-08-29 10:54:00,85.4,78.9,30.01,ESE,111,2.0,2.0,81,0.00,,FEW,0.00,445.00,VWS V14.01,2013-08-29 14:54:00,
2013-08-29 10:55:00,85.4,78.9,30.01,ESE,111,0.0,2.0,81,0.00,,FEW,0.00,355.00,VWS V14.01,2013-08-29 14:55:00,
2013-08-29 10:56:00,85.5,79.0,30.01,NE,34,0.0,3.0,81,0.00,,FEW,0.00,352.00,VWS V14.01,2013-08-29 14:56:00,
2013-08-29 10:57:00,85.5,78.6,30.01,NE,34,1.0,3.0,80,0.00,,FEW,0.00,350.00,VWS V14.01,2013-08-29 14:57:00,
2013-08-29 10:58:00,85.4,78.5,30.01,NE,34,1.0,3.0,80,0.00,,FEW,0.00,353.00,VWS V14.01,2013-08-29 14:58:00,
2013-08-29 10:59:00,85.4,78.5,30.01,NNE,26,0.0,3.0,80,0.00,,FEW,0.00,350.00,VWS V14.01,2013-08-29 14:59:00,
2013-08-29 11:00:00,85.4,78.5,30.01,NNE,32,1.0,3.0,80,0.00,,FEW,0.00,352.00,VWS V14.01,2013-08-29 15:00:00,
2013-08-29 11:01:00,85.4,78.5,30.01,NNE,32,0.0,3.0,80,0.00,,FEW,0.00,352.00,VWS V14.01,2013-08-29 15:01:00,
2013-08-29 11:02:00,85.5,78.6,30.01,NNE,32,0.0,3.0,80,0.00,,FEW,0.00,355.00,VWS V14.01,2013-08-29 15:02:00,
2013-08-29 11:03:00,85.5,78.6,30.01,NNE,32,0.0,0.0,80,0.00,,FEW,0.00,355.00,VWS V14.01,2013-08-29 15:03:00,
2013-08-29 11:04:00,85.5,78.6,30.01,NNE,32,0.0,1.0,80,0.00,,FEW,0.00,323.00,VWS V14.01,2013-08-29 15:04:00,
2013-08-29 11:06:00,85.6,78.7,30.01,ENE,72,1.0,2.0,80,0.00,,FEW,0.00,336.00,VWS V14.01,2013-08-29 15:06:00,
2013-08-29 11:07:00,85.7,78.8,30.01,ENE,73,0.0,2.0,80,0.00,,FEW,0.00,346.00,VWS V14.01,2013-08-29 15:07:00,
2013-08-29 11:08:00,85.7,78.8,30.01,ENE,72,0.0,2.0,80,0.00,,FEW,0.00,376.00,VWS V14.01,2013-08-29 15:08:00,
2013-08-29 11:09:00,85.7,78.4,30.01,NE,49,0.0,3.0,79,0.00,,FEW,0.00,376.00,VWS V14.01,2013-08-29 15:09:00,
2013-08-29 11:11:00,85.7,78.8,30.01,NE,49,0.0,3.0,80,0.00,,FEW,0.00,438.00,VWS V14.01,2013-08-29 15:11:00,
2013-08-29 11:12:00,85.7,78.4,30.01,NE,38,2.0,3.0,79,0.00,,FEW,0.00,438.00,VWS V14.01,2013-08-29 15:12:00,
2013-08-29 11:13:00,85.7,78.8,30.01,NE,38,1.0,2.0,80,0.00,,FEW,0.00,438.00,VWS V14.01,2013-08-29 15:13:00,
2013-08-29 11:14:00,85.7,78.4,30.01,NE,38,0.0,3.0,79,0.00,,FEW,0.00,438.00,VWS V14.01,2013-08-29 15:14:00,
2013-08-29 11:16:00,85.8,78.2,30.01,NE,38,1.0,3.0,78,0.00,,FEW,0.00,687.00,VWS V14.01,2013-08-29 15:16:00,
2013-08-29 11:17:00,85.8,78.2,30.01,NNE,27,3.0,3.0,78,0.00,,FEW,0.00,687.00,VWS V14.01,2013-08-29 15:17:00,
2013-08-29 11:19:00,86.0,78.7,30.01,NNE,27,1.0,3.0,79,0.00,,FEW,0.00,819.00,VWS V14.01,2013-08-29 15:19:00,
2013-08-29 11:21:00,86.2,78.5,30.01,ENE,59,2.0,3.0,78,0.00,,FEW,0.00,729.00,VWS V14.01,2013-08-29 15:21:00,
2013-08-29 11:22:00,86.2,78.5,30.01,NE,55,2.0,3.0,78,0.00,,FEW,0.00,729.00,VWS V14.01,2013-08-29 15:22:00,
2013-08-29 11:23:00,86.3,78.6,30.01,NE,51,1.0,3.0,78,0.00,,FEW,0.00,803.00,VWS V14.01,2013-08-29 15:23:00,
2013-08-29 11:24:00,86.3,78.6,30.01,NE,51,0.0,1.0,78,0.00,,FEW,0.00,803.00,VWS V14.01,2013-08-29 15:24:00,
2013-08-29 11:26:00,86.4,78.7,30.01,NE,46,1.0,4.0,78,0.00,,FEW,0.00,788.00,VWS V14.01,2013-08-29 15:26:00,
2013-08-29 11:27:00,86.5,78.8,30.01,NE,36,0.0,4.0,78,0.00,,FEW,0.00,870.00,VWS V14.01,2013-08-29 15:27:00,
2013-08-29 11:28:00,86.5,78.4,30.01,NNE,24,2.0,4.0,77,0.00,,FEW,0.00,817.00,VWS V14.01,2013-08-29 15:28:00,
2013-08-29 11:29:00,86.4,77.9,30.01,NNE,17,3.0,4.0,76,0.00,,FEW,0.00,874.00,VWS V14.01,2013-08-29 15:29:00,
2013-08-29 11:30:00,86.3,77.8,30.01,NNE,17,1.0,4.0,76,0.00,,FEW,0.00,870.00,VWS V14.01,2013-08-29 15:30:00,
2013-08-29 11:31:00,86.3,78.2,30.01,NE,34,2.0,4.0,77,0.00,,FEW,0.00,870.00,VWS V14.01,2013-08-29 15:31:00,
2013-08-29 11:32:00,86.5,78.4,30.01,North,355,3.0,4.0,77,0.00,,FEW,0.00,877.00,VWS V14.01,2013-08-29 15:32:00,
2013-08-29 11:34:00,86.5,78.4,30.01,NNE,28,2.0,4.0,77,0.00,,FEW,0.00,889.00,VWS V14.01,2013-08-29 15:34:00,
2013-08-29 11:35:00,86.6,78.5,30.01,North,5,4.0,6.0,77,0.00,,FEW,0.00,896.00,VWS V14.01,2013-08-29 15:35:00,
2013-08-29 11:36:00,86.6,78.5,30.01,NE,36,0.0,6.0,77,0.00,,FEW,0.00,891.00,VWS V14.01,2013-08-29 15:36:00,
2013-08-29 11:37:00,86.7,78.6,30.01,NNE,13,0.0,6.0,77,0.00,,FEW,0.00,877.00,VWS V14.01,2013-08-29 15:37:00,
2013-08-29 11:39:00,86.8,78.7,30.01,NE,37,2.0,6.0,77,0.00,,FEW,0.00,872.00,VWS V14.01,2013-08-29 15:39:00,
2013-08-29 11:40:00,87.0,79.3,30.01,NE,39,4.0,6.0,78,0.00,,FEW,0.00,868.00,VWS V14.01,2013-08-29 15:40:00,
2013-08-29 11:41:00,87.1,79.0,30.01,ENE,63,0.0,6.0,77,0.00,,FEW,0.00,870.00,VWS V14.01,2013-08-29 15:41:00,
2013-08-29 11:42:00,87.2,79.1,30.01,ENE,63,1.0,6.0,77,0.00,,FEW,0.00,870.00,VWS V14.01,2013-08-29 15:42:00,
2013-08-29 11:44:00,87.1,78.6,30.01,NE,39,2.0,3.0,76,0.00,,FEW,0.00,877.00,VWS V14.01,2013-08-29 15:44:00,
2013-08-29 11:45:00,87.1,78.6,30.01,ENE,59,2.0,3.0,76,0.00,,FEW,0.00,874.00,VWS V14.01,2013-08-29 15:45:00,
2013-08-29 11:46:00,87.1,78.2,30.01,ENE,57,1.0,3.0,75,0.00,,FEW,0.00,877.00,VWS V14.01,2013-08-29 15:46:00,
2013-08-29 11:47:00,87.2,78.7,30.00,NE,46,3.0,3.0,76,0.00,,FEW,0.00,882.00,VWS V14.01,2013-08-29 15:47:00,
2013-08-29 11:49:00,87.2,78.7,30.00,NE,40,0.0,4.0,76,0.00,,FEW,0.00,904.00,VWS V14.01,2013-08-29 15:49:00,
2013-08-29 11:50:00,87.2,78.7,30.00,NE,39,3.0,4.0,76,0.00,,FEW,0.00,812.00,VWS V14.01,2013-08-29 15:50:00,
2013-08-29 11:51:00,87.2,79.1,30.00,NE,35,3.0,5.0,77,0.00,,FEW,0.00,900.00,VWS V14.01,2013-08-29 15:51:00,
2013-08-29 11:52:00,87.2,79.1,30.00,NE,38,1.0,5.0,77,0.00,,FEW,0.00,833.00,VWS V14.01,2013-08-29 15:52:00,
2013-08-29 11:53:00,87.1,78.6,30.00,NE,46,3.0,5.0,76,0.00,,FEW,0.00,914.00,VWS V14.01,2013-08-29 15:53:00,
2013-08-29 11:54:00,86.9,78.4,30.00,NNE,20,2.0,3.0,76,0.00,,FEW,0.00,872.00,VWS V14.01,2013-08-29 15:54:00,
2013-08-29 11:55:00,86.8,78.3,30.00,NNE,20,2.0,3.0,76,0.00,,FEW,0.00,872.00,VWS V14.01,2013-08-29 15:55:00,
2013-08-29 11:56:00,86.9,78.8,30.00,NE,44,1.0,3.0,77,0.00,,FEW,0.00,874.00,VWS V14.01,2013-08-29 15:56:00,
2013-08-29 11:57:00,86.9,78.8,30.00,NE,50,2.0,3.0,77,0.00,,FEW,0.00,896.00,VWS V14.01,2013-08-29 15:57:00,
2013-08-29 11:58:00,87.1,79.0,30.00,NE,51,2.0,3.0,77,0.00,,FEW,0.00,969.00,VWS V14.01,2013-08-29 15:58:00,
2013-08-29 12:00:00,87.2,78.7,30.00,NE,44,2.0,3.0,76,0.00,,FEW,0.00,1018.00,VWS V14.01,2013-08-29 16:00:00,
2013-08-29 12:01:00,87.2,78.7,30.00,NE,40,2.0,4.0,76,0.00,,FEW,0.00,441.00,VWS V14.01,2013-08-29 16:01:00,
2013-08-29 12:02:00,87.2,78.3,30.01,NE,37,1.0,4.0,75,0.00,,FEW,0.00,441.00,VWS V14.01,2013-08-29 16:02:00,
2013-08-29 12:03:00,87.3,78.8,30.01,NE,38,1.0,1.0,76,0.00,,FEW,0.00,392.00,VWS V14.01,2013-08-29 16:03:00,
2013-08-29 12:05:00,87.3,78.8,30.01,NE,42,2.0,4.0,76,0.00,,FEW,0.00,392.00,VWS V14.01,2013-08-29 16:05:00,
2013-08-29 12:06:00,87.3,78.4,30.01,NE,41,2.0,4.0,75,0.00,,FEW,0.00,213.00,VWS V14.01,2013-08-29 16:06:00,
2013-08-29 12:07:00,87.2,78.3,30.01,NE,41,3.0,4.0,75,0.00,,FEW,0.00,243.00,VWS V14.01,2013-08-29 16:07:00,
2013-08-29 12:09:00,87.0,77.7,30.01,NE,40,0.0,4.0,74,0.00,,FEW,0.00,243.00,VWS V14.01,2013-08-29 16:09:00,
2013-08-29 12:10:00,86.7,77.8,30.01,NE,40,0.0,4.0,75,0.00,,FEW,0.00,814.00,VWS V14.01,2013-08-29 16:10:00,
2013-08-29 12:11:00,86.7,77.8,30.01,NE,40,0.0,4.0,75,0.00,,FEW,0.00,814.00,VWS V14.01,2013-08-29 16:11:00,
2013-08-29 12:12:00,86.5,78.0,30.01,NE,40,1.0,4.0,76,0.00,,FEW,0.00,814.00,VWS V14.01,2013-08-29 16:12:00,
2013-08-29 12:15:00,86.6,78.1,30.01,ENE,66,0.0,2.0,76,0.00,,FEW,0.00,218.00,VWS V14.01,2013-08-29 16:15:00,
2013-08-29 12:16:00,86.7,78.2,30.01,ENE,66,0.0,2.0,76,0.00,,FEW,0.00,302.00,VWS V14.01,2013-08-29 16:16:00,
2013-08-29 12:17:00,86.7,78.6,30.01,ESE,109,0.0,2.0,77,0.00,,FEW,0.00,302.00,VWS V14.01,2013-08-29 16:17:00,
2013-08-29 12:20:00,87.2,79.1,30.01,ESE,109,1.0,2.0,77,0.00,,FEW,0.00,930.00,VWS V14.01,2013-08-29 16:20:00,
2013-08-29 12:21:00,87.3,79.2,30.01,ESE,109,1.0,2.0,77,0.00,,FEW,0.00,1000.00,VWS V14.01,2013-08-29 16:21:00,
2013-08-29 12:22:00,87.5,79.0,30.01,ESE,113,1.0,2.0,76,0.00,,FEW,0.00,1063.00,VWS V14.01,2013-08-29 16:22:00,
2013-08-29 12:23:00,87.5,79.0,30.01,ESE,113,2.0,2.0,76,0.00,,FEW,0.00,1063.00,VWS V14.01,2013-08-29 16:23:00,
2013-08-29 12:26:00,88.6,80.1,30.01,ESE,108,2.0,3.0,76,0.00,,FEW,0.00,1039.00,VWS V14.01,2013-08-29 16:26:00,
2013-08-29 12:28:00,88.6,79.2,30.01,NE,38,1.0,3.0,74,0.00,,FEW,0.00,949.00,VWS V14.01,2013-08-29 16:28:00,
2013-08-29 12:29:00,88.4,79.5,30.01,NE,38,1.0,3.0,75,0.00,,FEW,0.00,791.00,VWS V14.01,2013-08-29 16:29:00,
2013-08-29 12:31:00,88.4,78.7,30.01,NE,38,1.0,3.0,73,0.00,,FEW,0.00,791.00,VWS V14.01,2013-08-29 16:31:00,
2013-08-29 12:32:00,88.1,79.2,30.01,NE,38,0.0,3.0,75,0.00,,FEW,0.00,1007.00,VWS V14.01,2013-08-29 16:32:00,
2013-08-29 12:33:00,88.4,79.5,30.01,NE,37,2.0,2.0,75,0.00,,FEW,0.00,918.00,VWS V14.01,2013-08-29 16:33:00,
2013-08-29 12:35:00,88.5,79.2,30.01,NE,50,2.0,2.0,74,0.00,,FEW,0.00,1053.00,VWS V14.01,2013-08-29 16:35:00,
2013-08-29 12:36:00,88.4,79.1,30.01,NE,49,2.0,4.0,74,0.00,,FEW,0.00,1215.00,VWS V14.01,2013-08-29 16:36:00,
2013-08-29 12:37:00,88.3,79.0,30.01,NE,46,1.0,4.0,74,0.00,,FEW,0.00,1215.00,VWS V14.01,2013-08-29 16:37:00,
2013-08-29 12:38:00,88.2,78.9,30.01,East,83,0.0,4.0,74,0.00,,FEW,0.00,1215.00,VWS V14.01,2013-08-29 16:38:00,
2013-08-29 12:40:00,88.4,79.5,30.01,East,83,1.0,4.0,75,0.00,,FEW,0.00,410.00,VWS V14.01,2013-08-29 16:40:00,
2013-08-29 12:41:00,88.4,79.5,30.01,East,83,0.0,4.0,75,0.00,,FEW,0.00,443.00,VWS V14.01,2013-08-29 16:41:00,
2013-08-29 12:42:00,88.4,79.1,30.01,East,83,0.0,4.0,74,0.00,,FEW,0.00,443.00,VWS V14.01,2013-08-29 16:42:00,
2013-08-29 12:43:00,88.4,79.1,30.01,SE,135,2.0,3.0,74,0.00,,FEW,0.00,281.00,VWS V14.01,2013-08-29 16:43:00,
2013-08-29 12:46:00,88.4,78.7,30.01,NNE,19,2.0,3.0,73,0.00,,FEW,0.00,287.00,VWS V14.01,2013-08-29 16:46:00,
2013-08-29 12:47:00,88.4,78.7,30.02,NNE,27,3.0,3.0,73,0.00,,FEW,0.00,294.00,VWS V14.01,2013-08-29 16:47:00,
2013-08-29 12:49:00,88.4,78.7,30.02,NE,36,2.0,4.0,73,0.00,,FEW,0.00,295.00,VWS V14.01,2013-08-29 16:49:00,
2013-08-29 12:51:00,88.2,78.4,30.02,NE,36,1.0,4.0,73,0.00,,FEW,0.00,288.00,VWS V14.01,2013-08-29 16:51:00,
2013-08-29 12:53:00,88.0,78.3,30.02,NE,47,2.0,4.0,73,0.00,,FEW,0.00,258.00,VWS V14.01,2013-08-29 16:53:00,
2013-08-29 12:54:00,87.9,78.6,30.02,NE,50,0.0,2.0,74,0.00,,FEW,0.00,338.00,VWS V14.01,2013-08-29 16:54:00,
2013-08-29 12:56:00,87.6,78.3,30.02,ESE,107,0.0,2.0,74,0.00,,FEW,0.00,338.00,VWS V14.01,2013-08-29 16:56:00,
2013-08-29 12:57:00,87.2,78.3,30.02,East,93,0.0,3.0,75,0.00,,FEW,0.00,909.00,VWS V14.01,2013-08-29 16:57:00,
2013-08-29 12:58:00,87.2,78.3,30.02,East,93,1.0,3.0,75,0.00,,FEW,0.00,907.00,VWS V14.01,2013-08-29 16:58:00,
2013-08-29 12:59:00,87.1,78.2,30.02,ESE,107,1.0,3.0,75,0.00,,FEW,0.00,907.00,VWS V14.01,2013-08-29 16:59:00,
2013-08-29 13:01:00,87.3,78.8,30.02,NNE,25,0.0,3.0,76,0.00,,FEW,0.00,907.00,VWS V14.01,2013-08-29 17:01:00,
2013-08-29 13:03:00,87.6,79.1,30.01,SSE,155,0.0,3.0,76,0.00,,FEW,0.00,320.00,VWS V14.01,2013-08-29 17:03:00,
2013-08-29 13:04:00,87.7,78.4,30.01,SSW,202,0.0,3.0,74,0.00,,FEW,0.00,285.00,VWS V14.01,2013-08-29 17:04:00,
2013-08-29 13:05:00,87.7,78.4,30.01,South,178,1.0,3.0,74,0.00,,FEW,0.00,318.00,VWS V14.01,2013-08-29 17:05:00,
2013-08-29 13:06:00,87.8,78.1,30.01,South,178,0.0,3.0,73,0.00,,FEW,0.00,302.00,VWS V14.01,2013-08-29 17:06:00,
2013-08-29 13:08:00,87.8,78.1,30.01,South,177,2.0,3.0,73,0.00,,FEW,0.00,364.00,VWS V14.01,2013-08-29 17:08:00,
2013-08-29 13:09:00,87.7,77.6,30.01,SSE,159,2.0,3.0,72,0.00,,FEW,0.00,364.00,VWS V14.01,2013-08-29 17:09:00,
2013-08-29 13:10:00,87.6,77.5,30.01,SSE,160,0.0,3.0,72,0.00,,FEW,0.00,364.00,VWS V14.01,2013-08-29 17:10:00,
2013-08-29 13:11:00,87.5,77.8,30.01,SSE,153,1.0,3.0,73,0.00,,FEW,0.00,364.00,VWS V14.01,2013-08-29 17:11:00,
2013-08-29 13:14:00,87.5,77.4,30.01,SE,142,2.0,3.0,72,0.00,,FEW,0.00,323.00,VWS V14.01,2013-08-29 17:14:00,
2013-08-29 13:15:00,87.3,76.8,30.01,SE,142,2.0,3.0,71,0.00,,FEW,0.00,1223.00,VWS V14.01,2013-08-29 17:15:00,
2013-08-29 13:16:00,87.3,77.2,30.01,South,171,2.0,3.0,72,0.00,,FEW,0.00,1223.00,VWS V14.01,2013-08-29 17:16:00,
2013-08-29 13:19:00,87.5,77.4,30.01,SSE,155,3.0,3.0,72,0.00,,FEW,0.00,334.00,VWS V14.01,2013-08-29 17:19:00,
2013-08-29 13:20:00,87.4,77.3,30.01,SSE,157,1.0,3.0,72,0.00,,FEW,0.00,390.00,VWS V14.01,2013-08-29 17:20:00,
2013-08-29 13:21:00,87.4,77.3,30.01,SSE,160,1.0,3.0,72,0.00,,FEW,0.00,336.00,VWS V14.01,2013-08-29 17:21:00,
2013-08-29 13:22:00,87.4,77.3,30.01,SSE,150,1.0,4.0,72,0.00,,FEW,0.00,336.00,VWS V14.01,2013-08-29 17:22:00,
2013-08-29 13:24:00,87.3,77.2,30.01,SSW,210,1.0,3.0,72,0.00,,FEW,0.00,352.00,VWS V14.01,2013-08-29 17:24:00,
2013-08-29 13:25:00,87.2,77.1,30.01,SSW,209,1.0,3.0,72,0.00,,FEW,0.00,352.00,VWS V14.01,2013-08-29 17:25:00,
2013-08-29 13:26:00,87.1,77.4,30.01,South,173,3.0,3.0,73,0.00,,FEW,0.00,352.00,VWS V14.01,2013-08-29 17:26:00,
2013-08-29 13:27:00,87.1,77.0,30.01,South,188,2.0,3.0,72,0.00,,FEW,0.00,503.00,VWS V14.01,2013-08-29 17:27:00,
2013-08-29 13:29:00,87.0,77.3,30.01,SW,216,3.0,3.0,73,0.00,,FEW,0.00,489.00,VWS V14.01,2013-08-29 17:29:00,
2013-08-29 13:30:00,86.8,77.5,30.01,SW,217,2.0,3.0,74,0.00,,FEW,0.00,489.00,VWS V14.01,2013-08-29 17:30:00,
2013-08-29 13:31:00,86.8,77.5,30.01,SSW,196,3.0,3.0,74,0.00,,FEW,0.00,1067.00,VWS V14.01,2013-08-29 17:31:00,
2013-08-29 13:32:00,86.7,77.4,30.01,SSW,202,1.0,4.0,74,0.00,,FEW,0.00,984.00,VWS V14.01,2013-08-29 17:32:00,
2013-08-29 13:33:00,86.8,77.5,30.00,SSE,168,3.0,4.0,74,0.00,,FEW,0.00,965.00,VWS V14.01,2013-08-29 17:33:00,
2013-08-29 13:34:00,87.0,77.7,30.00,SSE,148,3.0,5.0,74,0.00,,FEW,0.00,965.00,VWS V14.01,2013-08-29 17:34:00,
2013-08-29 13:35:00,87.0,77.7,30.00,SSE,150,3.0,5.0,74,0.00,,FEW,0.00,965.00,VWS V14.01,2013-08-29 17:35:00,
2013-08-29 13:36:00,87.0,77.7,30.00,South,180,3.0,5.0,74,0.00,,FEW,0.00,965.00,VWS V14.01,2013-08-29 17:36:00,
2013-08-29 13:37:00,87.0,78.1,30.00,East,98,0.0,5.0,75,0.00,,FEW,0.00,475.00,VWS V14.01,2013-08-29 17:37:00,
2013-08-29 13:38:00,87.0,78.1,30.00,ESE,119,1.0,5.0,75,0.00,,FEW,0.00,469.00,VWS V14.01,2013-08-29 17:38:00,
2013-08-29 13:40:00,87.1,77.4,30.00,ESE,123,1.0,5.0,73,0.00,,FEW,0.00,469.00,VWS V14.01,2013-08-29 17:40:00,
2013-08-29 13:41:00,87.1,77.8,30.00,SSE,147,0.0,5.0,74,0.00,,FEW,0.00,469.00,VWS V14.01,2013-08-29 17:41:00,
2013-08-29 13:42:00,87.2,77.9,30.00,South,178,1.0,5.0,74,0.00,,FEW,0.00,415.00,VWS V14.01,2013-08-29 17:42:00,
2013-08-29 13:44:00,87.3,77.6,30.00,South,175,0.0,3.0,73,0.00,,FEW,0.00,360.00,VWS V14.01,2013-08-29 17:44:00,
2013-08-29 13:45:00,87.4,77.7,30.00,South,174,1.0,3.0,73,0.00,,FEW,0.00,360.00,VWS V14.01,2013-08-29 17:45:00,
2013-08-29 13:46:00,87.4,77.7,30.00,South,186,3.0,3.0,73,0.00,,FEW,0.00,524.00,VWS V14.01,2013-08-29 17:46:00,
2013-08-29 13:47:00,87.3,77.6,30.00,South,188,2.0,3.0,73,0.00,,FEW,0.00,527.00,VWS V14.01,2013-08-29 17:47:00,
2013-08-29 13:50:00,87.2,77.5,30.00,South,183,1.0,3.0,73,0.00,,FEW,0.00,448.00,VWS V14.01,2013-08-29 17:50:00,
2013-08-29 13:51:00,87.0,76.5,30.00,South,185,2.0,3.0,71,0.00,,FEW,0.00,448.00,VWS V14.01,2013-08-29 17:51:00,
2013-08-29 13:52:00,87.0,76.5,30.00,South,186,2.0,3.0,71,0.00,,FEW,0.00,448.00,VWS V14.01,2013-08-29 17:52:00,
2013-08-29 13:55:00,87.0,77.3,30.00,South,173,1.0,2.0,73,0.00,,FEW,0.00,353.00,VWS V14.01,2013-08-29 17:55:00,
2013-08-29 13:57:00,87.1,77.4,30.00,South,173,1.0,2.0,73,0.00,,FEW,0.00,403.00,VWS V14.01,2013-08-29 17:57:00,
2013-08-29 14:00:00,87.2,77.9,30.00,South,177,1.0,3.0,74,0.00,,FEW,0.00,292.00,VWS V14.01,2013-08-29 18:00:00,
2013-08-29 14:02:00,87.2,77.9,30.00,South,176,2.0,3.0,74,0.00,,FEW,0.00,290.00,VWS V14.01,2013-08-29 18:02:00,
2013-08-29 14:03:00,87.2,77.9,30.00,South,176,2.0,3.0,74,0.00,,FEW,0.00,283.00,VWS V14.01,2013-08-29 18:03:00,
2013-08-29 14:05:00,87.0,77.7,30.00,SSE,157,0.0,4.0,74,0.00,,FEW,0.00,362.00,VWS V14.01,2013-08-29 18:05:00,
2013-08-29 14:06:00,87.0,78.1,30.00,SSW,192,2.0,4.0,75,0.00,,FEW,0.00,362.00,VWS V14.01,2013-08-29 18:06:00,
2013-08-29 14:07:00,87.0,78.1,30.00,SSW,201,3.0,5.0,75,0.00,,FEW,0.00,385.00,VWS V14.01,2013-08-29 18:07:00,
2013-08-29 14:08:00,86.8,77.9,30.00,SSW,203,4.0,5.0,75,0.00,,FEW,0.00,1245.00,VWS V14.01,2013-08-29 18:08:00,
2013-08-29 14:09:00,86.7,77.8,30.00,South,181,3.0,5.0,75,0.00,,FEW,0.00,1245.00,VWS V14.01,2013-08-29 18:09:00,
2013-08-29 14:10:00,86.7,78.2,30.00,South,186,4.0,5.0,76,0.00,,FEW,0.00,1035.00,VWS V14.01,2013-08-29 18:10:00,
2013-08-29 14:11:00,86.7,78.2,30.00,SSW,198,4.0,5.0,76,0.00,,FEW,0.00,1035.00,VWS V14.01,2013-08-29 18:11:00,
2013-08-29 14:12:00,86.7,77.8,30.00,South,186,5.0,5.0,75,0.00,,FEW,0.00,1035.00,VWS V14.01,2013-08-29 18:12:00,
2013-08-29 14:13:00,86.8,77.9,30.00,SSW,197,4.0,5.0,75,0.00,,FEW,0.00,1035.00,VWS V14.01,2013-08-29 18:13:00,
2013-08-29 14:14:00,86.9,78.4,30.00,SSE,163,2.0,3.0,76,0.00,,FEW,0.00,826.00,VWS V14.01,2013-08-29 18:14:00,
2013-08-29 14:15:00,87.0,78.1,30.00,SE,124,0.0,3.0,75,0.00,,FEW,0.00,814.00,VWS V14.01,2013-08-29 18:15:00,
2013-08-29 14:16:00,87.1,78.2,30.00,ESE,123,0.0,3.0,75,0.00,,FEW,0.00,814.00,VWS V14.01,2013-08-29 18:16:00,
2013-08-29 14:18:00,87.5,77.8,29.99,SE,132,2.0,3.0,73,0.00,,FEW,0.00,953.00,VWS V14.01,2013-08-29 18:18:00,
2013-08-29 14:19:00,87.5,78.2,29.99,SE,145,2.0,3.0,74,0.00,,FEW,0.00,988.00,VWS V14.01,2013-08-29 18:19:00,
2013-08-29 14:21:00,87.8,78.9,29.99,ESE,113,0.0,5.0,75,0.00,,FEW,0.00,1051.00,VWS V14.01,2013-08-29 18:21:00,
2013-08-29 14:22:00,88.0,78.3,29.99,ESE,123,2.0,6.0,73,0.00,,FEW,0.00,1039.00,VWS V14.01,2013-08-29 18:22:00,
2013-08-29 14:23:00,87.9,78.2,29.99,ESE,118,3.0,6.0,73,0.00,,FEW,0.00,1095.00,VWS V14.01,2013-08-29 18:23:00,
2013-08-29 14:24:00,87.6,77.5,29.99,SSE,149,0.0,3.0,72,0.00,,FEW,0.00,1062.00,VWS V14.01,2013-08-29 18:24:00,
2013-08-29 14:26:00,87.8,78.1,29.99,SE,139,0.0,3.0,73,0.00,,FEW,0.00,329.00,VWS V14.01,2013-08-29 18:26:00,
2013-08-29 14:27:00,88.0,78.7,29.99,SE,138,1.0,3.0,74,0.00,,FEW,0.00,329.00,VWS V14.01,2013-08-29 18:27:00,
2013-08-29 14:28:00,88.1,78.4,29.99,SE,146,1.0,3.0,73,0.00,,FEW,0.00,329.00,VWS V14.01,2013-08-29 18:28:00,
2013-08-29 14:30:00,88.1,77.9,29.99,SSE,162,3.0,3.0,72,0.00,,FEW,0.00,329.00,VWS V14.01,2013-08-29 18:30:00,
2013-08-29 14:31:00,88.0,77.8,29.99,SSW,192,3.0,4.0,72,0.00,,FEW,0.00,329.00,VWS V14.01,2013-08-29 18:31:00,
2013-08-29 14:32:00,87.9,77.8,29.99,SSW,203,3.0,4.0,72,0.00,,FEW,0.00,1016.00,VWS V14.01,2013-08-29 18:32:00,
2013-08-29 14:33:00,87.9,77.8,29.99,South,176,2.0,2.0,72,0.00,,FEW,0.00,1016.00,VWS V14.01,2013-08-29 18:33:00,
2013-08-29 14:34:00,87.9,78.2,29.99,SSW,194,1.0,4.0,73,0.00,,FEW,0.00,1016.00,VWS V14.01,2013-08-29 18:34:00,
2013-08-29 14:35:00,87.9,78.2,29.99,South,182,3.0,5.0,73,0.00,,FEW,0.00,1034.00,VWS V14.01,2013-08-29 18:35:00,
2013-08-29 14:36:00,87.8,78.1,29.99,South,175,1.0,5.0,73,0.00,,FEW,0.00,1065.00,VWS V14.01,2013-08-29 18:36:00,
2013-08-29 14:37:00,87.8,78.1,29.99,SSW,203,5.0,5.0,73,0.00,,FEW,0.00,1020.00,VWS V14.01,2013-08-29 18:37:00,
2013-08-29 14:38:00,87.7,78.0,29.99,SSW,205,2.0,5.0,73,0.00,,FEW,0.00,960.00,VWS V14.01,2013-08-29 18:38:00,
2013-08-29 14:39:00,87.8,78.1,29.99,SW,217,2.0,5.0,73,0.00,,FEW,0.00,960.00,VWS V14.01,2013-08-29 18:39:00,
2013-08-29 14:41:00,87.7,78.0,29.99,SSW,204,5.0,7.0,73,0.00,,FEW,0.00,960.00,VWS V14.01,2013-08-29 18:41:00,
2013-08-29 14:42:00,87.7,78.0,29.99,SSW,197,2.0,7.0,73,0.00,,FEW,0.00,960.00,VWS V14.01,2013-08-29 18:42:00,
2013-08-29 14:44:00,87.6,78.3,29.99,SSE,155,5.0,5.0,74,0.00,,FEW,0.00,1016.00,VWS V14.01,2013-08-29 18:44:00,
2013-08-29 14:46:00,87.8,78.5,29.99,SSW,200,4.0,5.0,74,0.00,,FEW,0.00,972.00,VWS V14.01,2013-08-29 18:46:00,
2013-08-29 14:47:00,87.8,78.1,29.98,SSW,211,4.0,5.0,73,0.00,,FEW,0.00,956.00,VWS V14.01,2013-08-29 18:47:00,
2013-08-29 14:49:00,87.6,77.5,29.98,SSW,200,3.0,5.0,72,0.00,,FEW,0.00,935.00,VWS V14.01,2013-08-29 18:49:00,
2013-08-29 14:51:00,87.3,77.2,29.98,SSW,211,2.0,5.0,72,0.00,,FEW,0.00,909.00,VWS V14.01,2013-08-29 18:51:00,
2013-08-29 14:52:00,87.1,77.0,29.98,SSW,202,2.0,5.0,72,0.00,,FEW,0.00,909.00,VWS V14.01,2013-08-29 18:52:00,
2013-08-29 14:54:00,87.2,77.9,29.98,SW,214,5.0,5.0,74,0.00,,FEW,0.00,932.00,VWS V14.01,2013-08-29 18:54:00,
2013-08-29 14:55:00,87.2,77.9,29.98,SSW,204,3.0,5.0,74,0.00,,FEW,0.00,928.00,VWS V14.01,2013-08-29 18:55:00,
2013-08-29 14:56:00,87.2,77.5,29.98,South,182,6.0,6.0,73,0.00,,FEW,0.00,911.00,VWS V14.01,2013-08-29 18:56:00,
2013-08-29 14:57:00,87.2,77.9,29.98,SSE,165,5.0,6.0,74,0.00,,FEW,0.00,898.00,VWS V14.01,2013-08-29 18:57:00,
2013-08-29 14:58:00,87.2,77.9,29.98,SSE,150,2.0,6.0,74,0.00,,FEW,0.00,898.00,VWS V14.01,2013-08-29 18:58:00,
2013-08-29 14:59:00,87.2,77.9,29.98,SSE,157,4.0,6.0,74,0.00,,FEW,0.00,909.00,VWS V14.01,2013-08-29 18:59:00,
2013-08-29 15:00:00,87.3,78.0,29.98,South,188,3.0,6.0,74,0.00,,FEW,0.00,912.00,VWS V14.01,2013-08-29 19:00:00,
2013-08-29 15:01:00,87.4,78.1,29.98,SSW,192,2.0,6.0,74,0.00,,FEW,0.00,911.00,VWS V14.01,2013-08-29 19:01:00,
2013-08-29 15:02:00,87.5,78.2,29.97,SSW,205,2.0,6.0,74,0.00,,FEW,0.00,904.00,VWS V14.01,2013-08-29 19:02:00,
2013-08-29 15:03:00,87.6,78.3,29.97,SSW,213,2.0,6.0,74,0.00,,FEW,0.00,904.00,VWS V14.01,2013-08-29 19:03:00,
2013-08-29 15:05:00,87.6,77.9,29.97,SSE,157,0.0,6.0,73,0.00,,FEW,0.00,923.00,VWS V14.01,2013-08-29 19:05:00,
2013-08-29 15:07:00,87.4,77.7,29.97,SSW,195,4.0,6.0,73,0.00,,FEW,0.00,909.00,VWS V14.01,2013-08-29 19:07:00,
2013-08-29 15:08:00,87.5,77.8,29.97,South,180,3.0,6.0,73,0.00,,FEW,0.00,911.00,VWS V14.01,2013-08-29 19:08:00,
2013-08-29 15:10:00,87.5,77.4,29.97,ESE,121,2.0,6.0,72,0.00,,FEW,0.00,882.00,VWS V14.01,2013-08-29 19:10:00,
2013-08-29 15:12:00,87.4,77.3,29.97,SSW,204,2.0,6.0,72,0.00,,FEW,0.00,856.00,VWS V14.01,2013-08-29 19:12:00,
2013-08-29 15:13:00,87.4,77.3,29.97,South,176,2.0,6.0,72,0.00,,FEW,0.00,856.00,VWS V14.01,2013-08-29 19:13:00,
2013-08-29 15:14:00,87.4,77.7,29.97,SSW,200,3.0,4.0,73,0.00,,FEW,0.00,858.00,VWS V14.01,2013-08-29 19:14:00,
2013-08-29 15:15:00,87.6,77.9,29.97,SSE,168,4.0,4.0,73,0.00,,FEW,0.00,851.00,VWS V14.01,2013-08-29 19:15:00,
2013-08-29 15:17:00,87.4,77.7,29.96,South,169,2.0,5.0,73,0.00,,FEW,0.00,844.00,VWS V14.01,2013-08-29 19:17:00,
2013-08-29 15:18:00,87.3,77.6,29.96,South,175,2.0,5.0,73,0.00,,FEW,0.00,838.00,VWS V14.01,2013-08-29 19:18:00,
2013-08-29 15:19:00,87.3,78.0,29.96,South,170,3.0,5.0,74,0.00,,FEW,0.00,842.00,VWS V14.01,2013-08-29 19:19:00,
2013-08-29 15:20:00,87.4,77.7,29.96,South,184,3.0,5.0,73,0.00,,FEW,0.00,844.00,VWS V14.01,2013-08-29 19:20:00,
2013-08-29 15:22:00,87.3,77.2,29.96,SSW,205,4.0,5.0,72,0.00,,FEW,0.00,844.00,VWS V14.01,2013-08-29 19:22:00,
2013-08-29 15:23:00,87.2,77.1,29.96,South,188,4.0,5.0,72,0.00,,FEW,0.00,844.00,VWS V14.01,2013-08-29 19:23:00,
2013-08-29 15:24:00,87.2,77.5,29.96,South,186,2.0,3.0,73,0.00,,FEW,0.00,840.00,VWS V14.01,2013-08-29 19:24:00,
2013-08-29 15:25:00,86.9,76.8,29.96,SSW,203,3.0,3.0,72,0.00,,FEW,0.00,837.00,VWS V14.01,2013-08-29 19:25:00,
2013-08-29 15:27:00,86.8,77.5,29.96,SSW,200,5.0,6.0,74,0.00,,FEW,0.00,851.00,VWS V14.01,2013-08-29 19:27:00,
2013-08-29 15:28:00,86.8,77.1,29.96,SSW,205,4.0,6.0,73,0.00,,FEW,0.00,851.00,VWS V14.01,2013-08-29 19:28:00,
2013-08-29 15:29:00,86.9,77.6,29.96,SSW,198,3.0,6.0,74,0.00,,FEW,0.00,884.00,VWS V14.01,2013-08-29 19:29:00,
2013-08-29 15:30:00,87.2,77.9,29.96,SSE,167,2.0,6.0,74,0.00,,FEW,0.00,881.00,VWS V14.01,2013-08-29 19:30:00,
2013-08-29 15:32:00,87.5,78.2,29.96,South,186,1.0,6.0,74,0.00,,FEW,0.00,861.00,VWS V14.01,2013-08-29 19:32:00,
2013-08-29 15:33:00,87.6,77.9,29.96,SSW,208,3.0,6.0,73,0.00,,FEW,0.00,861.00,VWS V14.01,2013-08-29 19:33:00,
2013-08-29 15:34:00,87.6,77.9,29.96,South,187,2.0,4.0,73,0.00,,FEW,0.00,875.00,VWS V14.01,2013-08-29 19:34:00,
2013-08-29 15:35:00,87.8,78.1,29.96,SSE,165,1.0,4.0,73,0.00,,FEW,0.00,853.00,VWS V14.01,2013-08-29 19:35:00,
2013-08-29 15:36:00,87.8,78.1,29.96,SSW,209,4.0,4.0,73,0.00,,FEW,0.00,853.00,VWS V14.01,2013-08-29 19:36:00,
2013-08-29 15:37:00,87.8,77.7,29.96,South,191,2.0,4.0,72,0.00,,FEW,0.00,865.00,VWS V14.01,2013-08-29 19:37:00,
2013-08-29 15:38:00,87.8,77.7,29.96,South,176,2.0,4.0,72,0.00,,FEW,0.00,865.00,VWS V14.01,2013-08-29 19:38:00,
2013-08-29 15:39:00,87.6,77.5,29.96,SSW,196,4.0,5.0,72,0.00,,FEW,0.00,865.00,VWS V14.01,2013-08-29 19:39:00,
2013-08-29 15:41:00,87.5,77.4,29.96,SSW,213,2.0,6.0,72,0.00,,FEW,0.00,865.00,VWS V14.01,2013-08-29 19:41:00,
2013-08-29 15:43:00,87.5,77.8,29.96,SSW,208,2.0,2.0,73,0.00,,FEW,0.00,232.00,VWS V14.01,2013-08-29 19:43:00,
2013-08-29 15:44:00,87.5,77.8,29.96,SSW,211,3.0,3.0,73,0.00,,FEW,0.00,232.00,VWS V14.01,2013-08-29 19:44:00,
2013-08-29 15:45:00,87.5,77.4,29.96,SSW,198,2.0,3.0,72,0.00,,FEW,0.00,510.00,VWS V14.01,2013-08-29 19:45:00,
2013-08-29 15:46:00,87.4,77.7,29.96,SSW,193,3.0,4.0,73,0.00,,FEW,0.00,568.00,VWS V14.01,2013-08-29 19:46:00,
2013-08-29 15:48:00,87.2,77.5,29.95,South,190,2.0,4.0,73,0.00,,FEW,0.00,840.00,VWS V14.01,2013-08-29 19:48:00,
2013-08-29 15:49:00,87.2,77.5,29.95,South,173,1.0,4.0,73,0.00,,FEW,0.00,824.00,VWS V14.01,2013-08-29 19:49:00,
2013-08-29 15:50:00,87.2,77.5,29.95,SSW,196,2.0,4.0,73,0.00,,FEW,0.00,810.00,VWS V14.01,2013-08-29 19:50:00,
2013-08-29 15:51:00,87.1,77.4,29.95,SW,217,2.0,4.0,73,0.00,,FEW,0.00,803.00,VWS V14.01,2013-08-29 19:51:00,
2013-08-29 15:52:00,87.0,77.3,29.95,South,175,3.0,4.0,73,0.00,,FEW,0.00,800.00,VWS V14.01,2013-08-29 19:52:00,
2013-08-29 15:53:00,87.1,77.8,29.95,SSW,202,2.0,3.0,74,0.00,,FEW,0.00,807.00,VWS V14.01,2013-08-29 19:53:00,
2013-08-29 15:54:00,87.1,77.8,29.95,SSW,192,3.0,3.0,74,0.00,,FEW,0.00,807.00,VWS V14.01,2013-08-29 19:54:00,
2013-08-29 15:55:00,87.1,77.8,29.95,SSW,193,3.0,3.0,74,0.00,,FEW,0.00,823.00,VWS V14.01,2013-08-29 19:55:00,
2013-08-29 15:56:00,87.1,77.4,29.95,SSW,195,3.0,4.0,73,0.00,,FEW,0.00,833.00,VWS V14.01,2013-08-29 19:56:00,
2013-08-29 15:58:00,87.0,77.3,29.95,SSE,153,4.0,5.0,73,0.00,,FEW,0.00,795.00,VWS V14.01,2013-08-29 19:58:00,
2013-08-29 15:59:00,87.1,77.8,29.95,SSE,167,4.0,5.0,74,0.00,,FEW,0.00,784.00,VWS V14.01,2013-08-29 19:59:00,
2013-08-29 16:00:00,87.2,77.9,29.95,SSE,153,1.0,5.0,74,0.00,,FEW,0.00,786.00,VWS V14.01,2013-08-29 20:00:00,
2013-08-29 16:01:00,87.3,78.0,29.95,SE,144,1.0,5.0,74,0.00,,FEW,0.00,782.00,VWS V14.01,2013-08-29 20:01:00,
2013-08-29 16:03:00,87.3,77.6,29.95,SSE,163,4.0,4.0,73,0.00,,FEW,0.00,775.00,VWS V14.01,2013-08-29 20:03:00,
2013-08-29 16:04:00,87.3,78.0,29.95,SSE,163,3.0,4.0,74,0.00,,FEW,0.00,773.00,VWS V14.01,2013-08-29 20:04:00,
2013-08-29 16:06:00,87.7,78.0,29.95,SSW,198,4.0,5.0,73,0.00,,FEW,0.00,754.00,VWS V14.01,2013-08-29 20:06:00,
2013-08-29 16:08:00,87.6,77.9,29.95,SSE,159,3.0,5.0,73,0.00,,FEW,0.00,737.00,VWS V14.01,2013-08-29 20:08:00,
2013-08-29 16:09:00,87.5,77.8,29.95,South,173,3.0,5.0,73,0.00,,FEW,0.00,737.00,VWS V14.01,2013-08-29 20:09:00,
2013-08-29 16:11:00,87.5,77.8,29.95,SSW,199,4.0,5.0,73,0.00,,FEW,0.00,729.00,VWS V14.01,2013-08-29 20:11:00,
2013-08-29 16:13:00,87.4,77.7,29.95,South,180,2.0,6.0,73,0.00,,FEW,0.00,731.00,VWS V14.01,2013-08-29 20:13:00,
2013-08-29 16:14:00,87.3,77.6,29.95,SSW,196,4.0,5.0,73,0.00,,FEW,0.00,738.00,VWS V14.01,2013-08-29 20:14:00,
2013-08-29 16:16:00,87.1,77.4,29.95,SSE,166,2.0,5.0,73,0.00,,FEW,0.00,737.00,VWS V14.01,2013-08-29 20:16:00,
2013-08-29 16:17:00,87.1,77.8,29.95,South,177,2.0,5.0,74,0.00,,FEW,0.00,737.00,VWS V14.01,2013-08-29 20:17:00,
2013-08-29 16:18:00,87.3,77.6,29.94,SE,125,2.0,5.0,73,0.00,,FEW,0.00,735.00,VWS V14.01,2013-08-29 20:18:00,
2013-08-29 16:19:00,87.3,77.6,29.94,SSW,204,4.0,5.0,73,0.00,,FEW,0.00,735.00,VWS V14.01,2013-08-29 20:19:00,
2013-08-29 16:21:00,87.4,77.7,29.94,SSW,204,5.0,5.0,73,0.00,,FEW,0.00,684.00,VWS V14.01,2013-08-29 20:21:00,
2013-08-29 16:22:00,87.3,77.6,29.94,SSW,210,3.0,5.0,73,0.00,,FEW,0.00,684.00,VWS V14.01,2013-08-29 20:22:00,
2013-08-29 16:23:00,87.4,77.7,29.94,SSE,149,2.0,3.0,73,0.00,,FEW,0.00,684.00,VWS V14.01,2013-08-29 20:23:00,
2013-08-29 16:24:00,87.5,77.8,29.94,SSE,157,4.0,4.0,73,0.00,,FEW,0.00,489.00,VWS V14.01,2013-08-29 20:24:00,
2013-08-29 16:26:00,87.5,77.4,29.94,South,189,2.0,5.0,72,0.00,,FEW,0.00,573.00,VWS V14.01,2013-08-29 20:26:00,
2013-08-29 16:27:00,87.5,77.4,29.94,South,180,3.0,5.0,72,0.00,,FEW,0.00,717.00,VWS V14.01,2013-08-29 20:27:00,
2013-08-29 16:29:00,87.5,77.8,29.94,South,190,4.0,5.0,73,0.00,,FEW,0.00,624.00,VWS V14.01,2013-08-29 20:29:00,
2013-08-29 16:31:00,87.4,77.3,29.94,South,190,2.0,5.0,72,0.00,,FEW,0.00,587.00,VWS V14.01,2013-08-29 20:31:00,
2013-08-29 16:32:00,87.3,77.2,29.94,SSE,168,4.0,5.0,72,0.00,,FEW,0.00,538.00,VWS V14.01,2013-08-29 20:32:00,
2013-08-29 16:33:00,87.2,77.1,29.94,SSW,207,3.0,6.0,72,0.00,,FEW,0.00,538.00,VWS V14.01,2013-08-29 20:33:00,
2013-08-29 16:34:00,87.2,77.1,29.94,SW,219,1.0,6.0,72,0.00,,FEW,0.00,698.00,VWS V14.01,2013-08-29 20:34:00,
2013-08-29 16:36:00,87.4,76.8,29.94,South,169,1.0,6.0,71,0.00,,FEW,0.00,679.00,VWS V14.01,2013-08-29 20:36:00,
2013-08-29 16:37:00,87.4,77.3,29.94,South,176,2.0,6.0,72,0.00,,FEW,0.00,661.00,VWS V14.01,2013-08-29 20:37:00,
2013-08-29 16:38:00,87.4,77.3,29.94,SSE,167,2.0,6.0,72,0.00,,FEW,0.00,661.00,VWS V14.01,2013-08-29 20:38:00,
2013-08-29 16:39:00,87.5,77.4,29.94,SSE,158,2.0,6.0,72,0.00,,FEW,0.00,649.00,VWS V14.01,2013-08-29 20:39:00,
2013-08-29 16:41:00,87.5,77.4,29.94,South,183,3.0,6.0,72,0.00,,FEW,0.00,635.00,VWS V14.01,2013-08-29 20:41:00,
2013-08-29 16:43:00,87.6,77.5,29.94,SSE,162,1.0,6.0,72,0.00,,FEW,0.00,626.00,VWS V14.01,2013-08-29 20:43:00,
2013-08-29 16:44:00,87.7,77.6,29.94,South,172,2.0,4.0,72,0.00,,FEW,0.00,610.00,VWS V14.01,2013-08-29 20:44:00,
2013-08-29 16:46:00,87.7,77.6,29.94,South,186,3.0,4.0,72,0.00,,FEW,0.00,594.00,VWS V14.01,2013-08-29 20:46:00,
2013-08-29 16:48:00,87.7,77.1,29.94,SSW,205,2.0,4.0,71,0.00,,FEW,0.00,587.00,VWS V14.01,2013-08-29 20:48:00,
2013-08-29 16:49:00,87.6,77.5,29.94,South,179,3.0,4.0,72,0.00,,FEW,0.00,584.00,VWS V14.01,2013-08-29 20:49:00,
2013-08-29 16:50:00,87.6,77.5,29.94,SSE,166,1.0,4.0,72,0.00,,FEW,0.00,584.00,VWS V14.01,2013-08-29 20:50:00,
2013-08-29 16:52:00,87.5,76.9,29.94,SSW,200,5.0,7.0,71,0.00,,FEW,0.00,571.00,VWS V14.01,2013-08-29 20:52:00,
2013-08-29 16:53:00,87.5,76.9,29.94,SSW,198,5.0,7.0,71,0.00,,FEW,0.00,571.00,VWS V14.01,2013-08-29 20:53:00,
2013-08-29 16:54:00,87.5,77.4,29.94,ESE,122,2.0,5.0,72,0.00,,FEW,0.00,566.00,VWS V14.01,2013-08-29 20:54:00,
2013-08-29 16:55:00,87.4,77.3,29.94,SSE,158,2.0,5.0,72,0.00,,FEW,0.00,563.00,VWS V14.01,2013-08-29 20:55:00,
2013-08-29 16:57:00,87.4,76.8,29.94,South,177,1.0,5.0,71,0.00,,FEW,0.00,541.00,VWS V14.01,2013-08-29 20:57:00,
2013-08-29 16:58:00,87.4,76.8,29.94,South,184,4.0,5.0,71,0.00,,FEW,0.00,541.00,VWS V14.01,2013-08-29 20:58:00,
2013-08-29 16:59:00,87.4,77.3,29.94,South,183,1.0,5.0,72,0.00,,FEW,0.00,543.00,VWS V14.01,2013-08-29 20:59:00,
2013-08-29 17:00:00,87.5,77.4,29.94,South,179,4.0,5.0,72,0.00,,FEW,0.00,478.00,VWS V14.01,2013-08-29 21:00:00,
2013-08-29 17:03:00,87.5,76.9,29.94,SSW,196,4.0,5.0,71,0.00,,FEW,0.00,541.00,VWS V14.01,2013-08-29 21:03:00,
2013-08-29 17:04:00,87.4,76.8,29.94,SSW,198,4.0,4.0,71,0.00,,FEW,0.00,534.00,VWS V14.01,2013-08-29 21:04:00,
2013-08-29 17:05:00,87.3,76.8,29.94,SSW,203,3.0,4.0,71,0.00,,FEW,0.00,512.00,VWS V14.01,2013-08-29 21:05:00,
2013-08-29 17:06:00,87.3,76.8,29.94,SSW,192,4.0,4.0,71,0.00,,FEW,0.00,512.00,VWS V14.01,2013-08-29 21:06:00,
2013-08-29 17:08:00,87.2,77.1,29.94,South,182,2.0,5.0,72,0.00,,FEW,0.00,519.00,VWS V14.01,2013-08-29 21:08:00,
2013-08-29 17:09:00,87.4,77.3,29.94,South,171,3.0,5.0,72,0.00,,FEW,0.00,513.00,VWS V14.01,2013-08-29 21:09:00,
2013-08-29 17:10:00,87.4,77.3,29.94,SSE,166,2.0,5.0,72,0.00,,FEW,0.00,510.00,VWS V14.01,2013-08-29 21:10:00,
2013-08-29 17:11:00,87.4,77.3,29.94,SSE,167,1.0,5.0,72,0.00,,FEW,0.00,504.00,VWS V14.01,2013-08-29 21:11:00,
2013-08-29 17:13:00,87.4,77.3,29.94,ESE,113,1.0,1.0,72,0.00,,FEW,0.00,459.00,VWS V14.01,2013-08-29 21:13:00,
2013-08-29 17:14:00,87.5,77.4,29.94,SSW,198,2.0,4.0,72,0.00,,FEW,0.00,494.00,VWS V14.01,2013-08-29 21:14:00,
2013-08-29 17:15:00,87.5,77.4,29.94,South,170,2.0,5.0,72,0.00,,FEW,0.00,489.00,VWS V14.01,2013-08-29 21:15:00,
2013-08-29 17:16:00,87.6,77.5,29.94,SSE,148,6.0,6.0,72,0.00,,FEW,0.00,492.00,VWS V14.01,2013-08-29 21:16:00,
2013-08-29 17:18:00,87.6,77.5,29.94,SE,139,2.0,6.0,72,0.00,,FEW,0.00,487.00,VWS V14.01,2013-08-29 21:18:00,
2013-08-29 17:19:00,87.4,76.8,29.94,South,171,1.0,6.0,71,0.00,,FEW,0.00,480.00,VWS V14.01,2013-08-29 21:19:00,
2013-08-29 17:20:00,87.4,77.3,29.94,South,173,0.0,6.0,72,0.00,,FEW,0.00,480.00,VWS V14.01,2013-08-29 21:20:00,
2013-08-29 17:21:00,87.5,77.4,29.94,SSE,165,1.0,6.0,72,0.00,,FEW,0.00,475.00,VWS V14.01,2013-08-29 21:21:00,
2013-08-29 17:23:00,87.6,77.0,29.94,SSE,151,2.0,3.0,71,0.00,,FEW,0.00,473.00,VWS V14.01,2013-08-29 21:23:00,
2013-08-29 17:24:00,87.6,77.0,29.94,South,176,2.0,3.0,71,0.00,,FEW,0.00,475.00,VWS V14.01,2013-08-29 21:24:00,
2013-08-29 17:25:00,87.5,76.9,29.94,South,169,1.0,4.0,71,0.00,,FEW,0.00,476.00,VWS V14.01,2013-08-29 21:25:00,
2013-08-29 17:27:00,87.6,77.0,29.94,South,173,4.0,5.0,71,0.00,,FEW,0.00,476.00,VWS V14.01,2013-08-29 21:27:00,
2013-08-29 17:28:00,87.5,76.9,29.94,South,177,1.0,6.0,71,0.00,,FEW,0.00,462.00,VWS V14.01,2013-08-29 21:28:00,
2013-08-29 17:29:00,87.5,76.9,29.94,SSE,164,2.0,6.0,71,0.00,,FEW,0.00,462.00,VWS V14.01,2013-08-29 21:29:00,
2013-08-29 17:30:00,87.6,77.5,29.94,South,187,3.0,6.0,72,0.00,,FEW,0.00,376.00,VWS V14.01,2013-08-29 21:30:00,
2013-08-29 17:32:00,87.6,77.0,29.94,SSW,203,4.0,6.0,71,0.00,,FEW,0.00,346.00,VWS V14.01,2013-08-29 21:32:00,
2013-08-29 17:34:00,87.4,76.8,29.94,South,186,0.0,3.0,71,0.00,,FEW,0.00,464.00,VWS V14.01,2013-08-29 21:34:00,
2013-08-29 17:35:00,87.4,76.8,29.94,South,188,1.0,4.0,71,0.00,,FEW,0.00,469.00,VWS V14.01,2013-08-29 21:35:00,
2013-08-29 17:37:00,87.5,76.9,29.94,South,179,3.0,4.0,71,0.00,,FEW,0.00,371.00,VWS V14.01,2013-08-29 21:37:00,
2013-08-29 17:39:00,87.6,77.0,29.94,SSW,192,4.0,4.0,71,0.00,,FEW,0.00,199.00,VWS V14.01,2013-08-29 21:39:00,
2013-08-29 17:40:00,87.6,77.0,29.94,SSE,155,1.0,4.0,71,0.00,,FEW,0.00,172.00,VWS V14.01,2013-08-29 21:40:00,
2013-08-29 17:42:00,87.5,76.9,29.94,SSW,203,2.0,5.0,71,0.00,,FEW,0.00,239.00,VWS V14.01,2013-08-29 21:42:00,
2013-08-29 17:44:00,87.4,76.8,29.94,South,182,3.0,4.0,71,0.00,,FEW,0.00,279.00,VWS V14.01,2013-08-29 21:44:00,
2013-08-29 17:45:00,87.3,76.8,29.94,SSW,198,1.0,5.0,71,0.00,,FEW,0.00,221.00,VWS V14.01,2013-08-29 21:45:00,
2013-08-29 17:48:00,87.0,76.5,29.94,SSW,194,1.0,5.0,71,0.00,,FEW,0.00,209.00,VWS V14.01,2013-08-29 21:48:00,
2013-08-29 17:49:00,86.9,76.4,29.94,SSW,203,3.0,5.0,71,0.00,,FEW,0.00,178.00,VWS V14.01,2013-08-29 21:49:00,
2013-08-29 17:50:00,86.9,76.4,29.94,SSW,203,1.0,5.0,71,0.00,,FEW,0.00,178.00,VWS V14.01,2013-08-29 21:50:00,
2013-08-29 17:51:00,86.8,76.7,29.94,SSW,194,2.0,5.0,72,0.00,,FEW,0.00,202.00,VWS V14.01,2013-08-29 21:51:00,
2013-08-29 17:53:00,86.7,76.6,29.94,SSW,199,2.0,4.0,72,0.00,,FEW,0.00,223.00,VWS V14.01,2013-08-29 21:53:00,
2013-08-29 17:54:00,86.7,76.6,29.94,South,181,2.0,4.0,72,0.00,,FEW,0.00,308.00,VWS V14.01,2013-08-29 21:54:00,
2013-08-29 17:55:00,86.7,76.6,29.94,South,184,1.0,4.0,72,0.00,,FEW,0.00,308.00,VWS V14.01,2013-08-29 21:55:00,
2013-08-29 17:56:00,86.6,76.5,29.94,SSW,197,4.0,5.0,72,0.00,,FEW,0.00,325.00,VWS V14.01,2013-08-29 21:56:00,
2013-08-29 17:59:00,86.5,76.8,29.94,South,189,2.0,5.0,73,0.00,,FEW,0.00,329.00,VWS V14.01,2013-08-29 21:59:00,
2013-08-29 18:00:00,86.5,76.8,29.94,South,188,3.0,5.0,73,0.00,,FEW,0.00,320.00,VWS V14.01,2013-08-29 22:00:00,
2013-08-29 18:01:00,86.5,76.8,29.94,SSW,194,3.0,5.0,73,0.00,,FEW,0.00,315.00,VWS V14.01,2013-08-29 22:01:00,
2013-08-29 18:02:00,86.5,76.8,29.94,South,186,3.0,5.0,73,0.00,,FEW,0.00,265.00,VWS V14.01,2013-08-29 22:02:00,
2013-08-29 18:04:00,86.6,76.9,29.94,SSE,164,0.0,1.0,73,0.00,,FEW,0.00,357.00,VWS V14.01,2013-08-29 22:04:00,
2013-08-29 18:05:00,86.7,77.0,29.94,South,183,4.0,4.0,73,0.00,,FEW,0.00,369.00,VWS V14.01,2013-08-29 22:05:00,
2013-08-29 18:06:00,86.8,77.1,29.94,SSE,168,2.0,4.0,73,0.00,,FEW,0.00,364.00,VWS V14.01,2013-08-29 22:06:00,
2013-08-29 18:07:00,86.8,77.1,29.94,South,187,1.0,4.0,73,0.00,,FEW,0.00,364.00,VWS V14.01,2013-08-29 22:07:00,
2013-08-29 18:09:00,86.8,76.7,29.94,South,178,1.0,4.0,72,0.00,,FEW,0.00,290.00,VWS V14.01,2013-08-29 22:09:00,
2013-08-29 18:10:00,86.8,76.7,29.94,South,191,3.0,5.0,72,0.00,,FEW,0.00,316.00,VWS V14.01,2013-08-29 22:10:00,
2013-08-29 18:11:00,86.8,76.7,29.94,SSW,198,2.0,5.0,72,0.00,,FEW,0.00,378.00,VWS V14.01,2013-08-29 22:11:00,
2013-08-29 18:12:00,86.8,76.3,29.94,SSW,204,2.0,5.0,71,0.00,,FEW,0.00,378.00,VWS V14.01,2013-08-29 22:12:00,
2013-08-29 18:14:00,86.8,76.7,29.94,SSE,155,1.0,2.0,72,0.00,,FEW,0.00,343.00,VWS V14.01,2013-08-29 22:14:00,
2013-08-29 18:15:00,86.8,76.7,29.94,South,188,2.0,4.0,72,0.00,,FEW,0.00,334.00,VWS V14.01,2013-08-29 22:15:00,
2013-08-29 18:16:00,86.9,76.8,29.94,SSW,198,2.0,4.0,72,0.00,,FEW,0.00,329.00,VWS V14.01,2013-08-29 22:16:00,
2013-08-29 18:18:00,86.9,76.4,29.94,South,187,1.0,4.0,71,0.00,,FEW,0.00,336.00,VWS V14.01,2013-08-29 22:18:00,
2013-08-29 18:19:00,86.9,76.4,29.94,SSE,163,1.0,4.0,71,0.00,,FEW,0.00,327.00,VWS V14.01,2013-08-29 22:19:00,
2013-08-29 18:20:00,86.9,76.8,29.94,South,169,2.0,4.0,72,0.00,,FEW,0.00,318.00,VWS V14.01,2013-08-29 22:20:00,
2013-08-29 18:21:00,86.9,76.4,29.94,South,178,2.0,4.0,71,0.00,,FEW,0.00,311.00,VWS V14.01,2013-08-29 22:21:00,
2013-08-29 18:24:00,86.9,76.4,29.94,South,175,3.0,4.0,71,0.00,,FEW,0.00,285.00,VWS V14.01,2013-08-29 22:24:00,
2013-08-29 18:25:00,87.0,76.5,29.94,South,175,0.0,4.0,71,0.00,,FEW,0.00,276.00,VWS V14.01,2013-08-29 22:25:00,
2013-08-29 18:26:00,87.0,76.5,29.94,ESE,123,0.0,4.0,71,0.00,,FEW,0.00,267.00,VWS V14.01,2013-08-29 22:26:00,
2013-08-29 18:27:00,87.0,76.5,29.94,ESE,122,1.0,4.0,71,0.00,,FEW,0.00,257.00,VWS V14.01,2013-08-29 22:27:00,
2013-08-29 18:29:00,87.1,76.6,29.94,ESE,111,2.0,4.0,71,0.00,,FEW,0.00,232.00,VWS V14.01,2013-08-29 22:29:00,
2013-08-29 18:30:00,87.1,76.6,29.94,ESE,111,2.0,4.0,71,0.00,,FEW,0.00,232.00,VWS V14.01,2013-08-29 22:30:00,
2013-08-29 18:31:00,87.1,76.6,29.94,ESE,111,0.0,4.0,71,0.00,,FEW,0.00,227.00,VWS V14.01,2013-08-29 22:31:00,
2013-08-29 18:33:00,87.2,76.7,29.93,SE,146,1.0,1.0,71,0.00,,FEW,0.00,214.00,VWS V14.01,2013-08-29 22:33:00,
2013-08-29 18:34:00,87.2,76.7,29.93,SSE,147,0.0,1.0,71,0.00,,FEW,0.00,204.00,VWS V14.01,2013-08-29 22:34:00,
2013-08-29 18:35:00,87.2,76.7,29.93,SSE,147,1.0,1.0,71,0.00,,FEW,0.00,204.00,VWS V14.01,2013-08-29 22:35:00,
2013-08-29 18:36:00,87.2,76.7,29.93,SSE,168,2.0,2.0,71,0.00,,FEW,0.00,197.00,VWS V14.01,2013-08-29 22:36:00,
2013-08-29 18:38:00,87.2,76.7,29.93,South,171,1.0,4.0,71,0.00,,FEW,0.00,183.00,VWS V14.01,2013-08-29 22:38:00,
2013-08-29 18:40:00,87.1,76.1,29.93,South,184,1.0,4.0,70,0.00,,FEW,0.00,174.00,VWS V14.01,2013-08-29 22:40:00,
2013-08-29 18:41:00,87.0,76.5,29.93,South,184,3.0,4.0,71,0.00,,FEW,0.00,172.00,VWS V14.01,2013-08-29 22:41:00,
2013-08-29 18:43:00,87.0,76.5,29.93,South,184,0.0,0.0,71,0.00,,FEW,0.00,165.00,VWS V14.01,2013-08-29 22:43:00,
2013-08-29 18:45:00,86.9,76.4,29.93,SE,144,1.0,4.0,71,0.00,,FEW,0.00,158.00,VWS V14.01,2013-08-29 22:45:00,
2013-08-29 18:46:00,86.9,76.4,29.93,SE,145,2.0,4.0,71,0.00,,FEW,0.00,155.00,VWS V14.01,2013-08-29 22:46:00,
2013-08-29 18:48:00,86.9,76.4,29.93,SSE,166,2.0,4.0,71,0.00,,FEW,0.00,148.00,VWS V14.01,2013-08-29 22:48:00,
2013-08-29 18:50:00,86.9,76.4,29.93,South,169,1.0,4.0,71,0.00,,FEW,0.00,141.00,VWS V14.01,2013-08-29 22:50:00,
2013-08-29 18:51:00,86.9,76.4,29.93,South,169,0.0,4.0,71,0.00,,FEW,0.00,137.00,VWS V14.01,2013-08-29 22:51:00,
2013-08-29 18:53:00,86.9,76.4,29.93,South,173,0.0,1.0,71,0.00,,FEW,0.00,127.00,VWS V14.01,2013-08-29 22:53:00,
2013-08-29 18:55:00,86.8,76.7,29.93,South,178,1.0,3.0,72,0.00,,FEW,0.00,121.00,VWS V14.01,2013-08-29 22:55:00,
2013-08-29 18:56:00,86.8,76.7,29.93,South,178,1.0,3.0,72,0.00,,FEW,0.00,121.00,VWS V14.01,2013-08-29 22:56:00,
2013-08-29 18:57:00,86.8,76.7,29.93,South,178,1.0,3.0,72,0.00,,FEW,0.00,118.00,VWS V14.01,2013-08-29 22:57:00,
2013-08-29 19:00:00,86.8,76.3,29.93,South,173,2.0,3.0,71,0.00,,FEW,0.00,105.00,VWS V14.01,2013-08-29 23:00:00,
2013-08-29 19:01:00,86.8,76.7,29.93,South,178,2.0,3.0,72,0.00,,FEW,0.00,105.00,VWS V14.01,2013-08-29 23:01:00,
2013-08-29 19:02:00,86.8,76.7,29.93,South,178,1.0,3.0,72,0.00,,FEW,0.00,98.00,VWS V14.01,2013-08-29 23:02:00,
2013-08-29 19:05:00,86.7,76.6,29.93,South,170,1.0,2.0,72,0.00,,FEW,0.00,88.00,VWS V14.01,2013-08-29 23:05:00,
2013-08-29 19:06:00,86.6,76.5,29.93,SSE,163,2.0,2.0,72,0.00,,FEW,0.00,84.00,VWS V14.01,2013-08-29 23:06:00,
2013-08-29 19:07:00,86.6,76.5,29.93,South,171,0.0,3.0,72,0.00,,FEW,0.00,81.00,VWS V14.01,2013-08-29 23:07:00,
2013-08-29 19:11:00,86.4,76.3,29.93,SSE,153,2.0,4.0,72,0.00,,FEW,0.00,69.00,VWS V14.01,2013-08-29 23:11:00,
2013-08-29 19:12:00,86.4,76.3,29.93,SSE,153,1.0,4.0,72,0.00,,FEW,0.00,67.00,VWS V14.01,2013-08-29 23:12:00,
2013-08-29 19:13:00,86.3,76.2,29.93,SSE,153,1.0,4.0,72,0.00,,FEW,0.00,63.00,VWS V14.01,2013-08-29 23:13:00,
2013-08-29 19:16:00,86.3,76.6,29.93,South,169,2.0,4.0,73,0.00,,FEW,0.00,54.00,VWS V14.01,2013-08-29 23:16:00,
2013-08-29 19:17:00,86.2,76.5,29.93,South,169,1.0,4.0,73,0.00,,FEW,0.00,53.00,VWS V14.01,2013-08-29 23:17:00,
2013-08-29 19:18:00,86.1,76.4,29.93,South,178,1.0,4.0,73,0.00,,FEW,0.00,47.00,VWS V14.01,2013-08-29 23:18:00,
2013-08-29 19:21:00,86.1,76.4,29.93,South,178,1.0,4.0,73,0.00,,FEW,0.00,40.00,VWS V14.01,2013-08-29 23:21:00,
2013-08-29 19:22:00,86.0,76.3,29.93,South,178,0.0,4.0,73,0.00,,FEW,0.00,40.00,VWS V14.01,2013-08-29 23:22:00,
2013-08-29 19:23:00,86.0,76.3,29.93,South,178,0.0,4.0,73,0.00,,FEW,0.00,37.00,VWS V14.01,2013-08-29 23:23:00,
2013-08-29 19:26:00,85.9,76.2,29.93,SSE,162,1.0,3.0,73,0.00,,FEW,0.00,28.00,VWS V14.01,2013-08-29 23:26:00,
2013-08-29 19:27:00,85.9,76.2,29.93,SSE,162,0.0,3.0,73,0.00,,FEW,0.00,26.00,VWS V14.01,2013-08-29 23:27:00,
2013-08-29 19:28:00,85.9,76.2,29.93,SSE,162,0.0,3.0,73,0.00,,FEW,0.00,25.00,VWS V14.01,2013-08-29 23:28:00,
2013-08-29 19:29:00,85.8,76.2,29.93,SSE,162,0.0,3.0,73,0.00,,FEW,0.00,23.00,VWS V14.01,2013-08-29 23:29:00,
2013-08-29 19:31:00,85.8,76.2,29.93,SSE,162,0.0,3.0,73,0.00,,FEW,0.00,19.00,VWS V14.01,2013-08-29 23:31:00,
2013-08-29 19:32:00,85.7,76.1,29.93,SSE,162,0.0,3.0,73,0.00,,FEW,0.00,16.00,VWS V14.01,2013-08-29 23:32:00,
2013-08-29 19:33:00,85.7,76.1,29.93,SSE,162,0.0,3.0,73,0.00,,FEW,0.00,12.00,VWS V14.01,2013-08-29 23:33:00,
2013-08-29 19:34:00,85.7,76.1,29.93,SSE,162,0.0,0.0,73,0.00,,FEW,0.00,9.00,VWS V14.01,2013-08-29 23:34:00,
2013-08-29 19:36:00,85.5,75.9,29.93,SSE,162,0.0,1.0,73,0.00,,FEW,0.00,7.00,VWS V14.01,2013-08-29 23:36:00,
2013-08-29 19:37:00,85.5,75.9,29.93,SSE,162,0.0,1.0,73,0.00,,FEW,0.00,5.00,VWS V14.01,2013-08-29 23:37:00,
2013-08-29 19:38:00,85.5,75.9,29.93,SSE,162,0.0,1.0,73,0.00,,FEW,0.00,5.00,VWS V14.01,2013-08-29 23:38:00,
2013-08-29 19:39:00,85.4,75.8,29.93,SSE,162,0.0,1.0,73,0.00,,FEW,0.00,5.00,VWS V14.01,2013-08-29 23:39:00,
2013-08-29 19:41:00,85.3,75.7,29.93,SSE,162,0.0,1.0,73,0.00,,FEW,0.00,5.00,VWS V14.01,2013-08-29 23:41:00,
2013-08-29 19:42:00,85.2,75.6,29.93,SSE,162,0.0,1.0,73,0.00,,FEW,0.00,5.00,VWS V14.01,2013-08-29 23:42:00,
2013-08-29 19:44:00,85.2,75.6,29.93,SSE,162,0.0,0.0,73,0.00,,FEW,0.00,0.00,VWS V14.01,2013-08-29 23:44:00,
2013-08-29 19:45:00,85.1,75.5,29.93,SSE,162,1.0,1.0,73,0.00,,FEW,0.00,0.00,VWS V14.01,2013-08-29 23:45:00,
2013-08-29 19:46:00,85.1,75.5,29.93,SSE,162,0.0,2.0,73,0.00,,FEW,0.00,0.00,VWS V14.01,2013-08-29 23:46:00,
2013-08-29 19:48:00,85.0,75.4,29.94,SSE,162,1.0,2.0,73,0.00,,FEW,0.00,0.00,VWS V14.01,2013-08-29 23:48:00,
2013-08-29 19:49:00,84.9,75.3,29.94,SSE,162,0.0,2.0,73,0.00,,FEW,0.00,0.00,VWS V14.01,2013-08-29 23:49:00,
2013-08-29 19:50:00,84.9,75.3,29.94,SSE,162,0.0,2.0,73,0.00,,FEW,0.00,0.00,VWS V14.01,2013-08-29 23:50:00,
2013-08-29 19:51:00,84.8,75.2,29.94,SSE,162,0.0,2.0,73,0.00,,FEW,0.00,0.00,VWS V14.01,2013-08-29 23:51:00,
2013-08-29 19:53:00,84.8,75.2,29.94,SSE,162,0.0,2.0,73,0.00,,FEW,0.00,0.00,VWS V14.01,2013-08-29 23:53:00,
2013-08-29 19:55:00,84.7,75.1,29.94,SSE,162,0.0,0.0,73,0.00,,FEW,0.00,0.00,VWS V14.01,2013-08-29 23:55:00,
2013-08-29 19:56:00,84.7,75.5,29.94,SSE,162,1.0,1.0,74,0.00,,FEW,0.00,0.00,VWS V14.01,2013-08-29 23:56:00,
2013-08-29 19:57:00,84.6,75.4,29.94,SSE,162,1.0,1.0,74,0.00,,FEW,0.00,0.00,VWS V14.01,2013-08-29 23:57:00,
2013-08-29 19:58:00,84.5,75.3,29.94,SSE,162,0.0,1.0,74,0.00,,FEW,0.00,0.00,VWS V14.01,2013-08-29 23:58:00,
2013-08-29 20:00:00,84.4,75.2,29.94,SSE,162,0.0,1.0,74,0.00,,FEW,0.00,0.00,VWS V14.01,2013-08-30 00:00:00,
2013-08-29 20:02:00,84.4,75.2,29.94,SSE,162,0.0,1.0,74,0.00,,FEW,0.00,0.00,VWS V14.01,2013-08-30 00:02:00,
2013-08-29 20:03:00,84.3,75.1,29.95,SSE,162,0.0,1.0,74,0.00,,FEW,0.00,0.00,VWS V14.01,2013-08-30 00:03:00,
2013-08-29 20:05:00,84.2,75.0,29.95,SSE,162,0.0,2.0,74,0.00,,FEW,0.00,0.00,VWS V14.01,2013-08-30 00:05:00,
2013-08-29 20:07:00,84.1,75.3,29.95,SSE,162,1.0,2.0,75,0.00,,FEW,0.00,0.00,VWS V14.01,2013-08-30 00:07:00,
2013-08-29 20:08:00,84.1,75.3,29.95,SSE,162,0.0,2.0,75,0.00,,FEW,0.00,0.00,VWS V14.01,2013-08-30 00:08:00,
2013-08-29 20:09:00,84.1,75.7,29.95,SSE,166,1.0,3.0,76,0.00,,FEW,0.00,0.00,VWS V14.01,2013-08-30 00:09:00,
2013-08-29 20:10:00,84.0,75.6,29.95,SSE,165,0.0,3.0,76,0.00,,FEW,0.00,0.00,VWS V14.01,2013-08-30 00:10:00,
2013-08-29 20:12:00,83.9,75.5,29.95,SSE,166,0.0,3.0,76,0.00,,FEW,0.00,0.00,VWS V14.01,2013-08-30 00:12:00,
2013-08-29 20:13:00,83.9,75.5,29.95,SSE,166,0.0,0.0,76,0.00,,FEW,0.00,0.00,VWS V14.01,2013-08-30 00:13:00,
2013-08-29 20:14:00,83.9,75.5,29.95,SSE,166,1.0,2.0,76,0.00,,FEW,0.00,0.00,VWS V14.01,2013-08-30 00:14:00,
2013-08-29 20:17:00,83.8,75.4,29.95,SSE,165,0.0,2.0,76,0.00,,FEW,0.00,0.00,VWS V14.01,2013-08-30 00:17:00,
2013-08-29 20:18:00,83.8,75.4,29.96,SSE,166,1.0,2.0,76,0.00,,FEW,0.00,0.00,VWS V14.01,2013-08-30 00:18:00,
2013-08-29 20:19:00,83.8,75.4,29.96,SSE,166,0.0,2.0,76,0.00,,FEW,0.00,0.00,VWS V14.01,2013-08-30 00:19:00,
2013-08-29 20:22:00,83.7,75.3,29.96,SSE,165,0.0,2.0,76,0.00,,FEW,0.00,0.00,VWS V14.01,2013-08-30 00:22:00,
2013-08-29 20:23:00,83.7,75.3,29.96,SSE,165,0.0,2.0,76,0.00,,FEW,0.00,0.00,VWS V14.01,2013-08-30 00:23:00,
2013-08-29 20:24:00,83.6,75.6,29.96,SSE,165,0.0,1.0,77,0.00,,FEW,0.00,0.00,VWS V14.01,2013-08-30 00:24:00,
2013-08-29 20:25:00,83.6,75.6,29.96,SSE,165,0.0,1.0,77,0.00,,FEW,0.00,0.00,VWS V14.01,2013-08-30 00:25:00,
2013-08-29 20:27:00,83.6,75.6,29.96,SSE,165,1.0,2.0,77,0.00,,FEW,0.00,0.00,VWS V14.01,2013-08-30 00:27:00,
2013-08-29 20:28:00,83.5,75.5,29.96,SSE,165,1.0,2.0,77,0.00,,FEW,0.00,0.00,VWS V14.01,2013-08-30 00:28:00,
2013-08-29 20:29:00,83.6,75.6,29.96,SSE,165,2.0,2.0,77,0.00,,FEW,0.00,0.00,VWS V14.01,2013-08-30 00:29:00,
2013-08-29 20:30:00,83.5,75.5,29.96,SSE,159,0.0,2.0,77,0.00,,FEW,0.00,0.00,VWS V14.01,2013-08-30 00:30:00,
2013-08-29 20:32:00,83.4,75.4,29.96,SSE,159,0.0,2.0,77,0.00,,FEW,0.00,0.00,VWS V14.01,2013-08-30 00:32:00,
2013-08-29 20:33:00,83.4,75.4,29.96,SSE,156,0.0,0.0,77,0.00,,FEW,0.00,0.00,VWS V14.01,2013-08-30 00:33:00,
2013-08-29 20:34:00,83.4,75.4,29.96,SSE,155,0.0,0.0,77,0.00,,FEW,0.00,0.00,VWS V14.01,2013-08-30 00:34:00,
2013-08-29 20:35:00,83.4,75.4,29.96,SSE,156,0.0,2.0,77,0.00,,FEW,0.00,0.00,VWS V14.01,2013-08-30 00:35:00,
2013-08-29 20:36:00,83.4,75.4,29.96,SSE,155,0.0,2.0,77,0.00,,FEW,0.00,0.00,VWS V14.01,2013-08-30 00:36:00,
2013-08-29 20:37:00,83.4,75.4,29.96,SSE,155,0.0,2.0,77,0.00,,FEW,0.00,0.00,VWS V14.01,2013-08-30 00:37:00,
2013-08-29 20:38:00,83.4,75.4,29.96,SSE,155,0.0,2.0,77,0.00,,FEW,0.00,0.00,VWS V14.01,2013-08-30 00:38:00,
2013-08-29 20:39:00,83.4,75.4,29.96,SSE,155,1.0,2.0,77,0.00,,FEW,0.00,0.00,VWS V14.01,2013-08-30 00:39:00,
2013-08-29 20:41:00,83.3,75.3,29.96,SSE,155,3.0,3.0,77,0.00,,FEW,0.00,0.00,VWS V14.01,2013-08-30 00:41:00,
2013-08-29 20:42:00,83.3,75.3,29.96,SSE,155,1.0,3.0,77,0.00,,FEW,0.00,0.00,VWS V14.01,2013-08-30 00:42:00,
2013-08-29 20:43:00,83.3,75.3,29.96,SSE,156,1.0,1.0,77,0.00,,FEW,0.00,0.00,VWS V14.01,2013-08-30 00:43:00,
2013-08-29 20:44:00,83.2,75.2,29.96,SSE,155,1.0,1.0,77,0.00,,FEW,0.00,0.00,VWS V14.01,2013-08-30 00:44:00,
2013-08-29 20:46:00,83.2,75.2,29.96,SSE,156,0.0,2.0,77,0.00,,FEW,0.00,0.00,VWS V14.01,2013-08-30 00:46:00,
2013-08-29 20:47:00,83.2,75.2,29.96,SE,140,1.0,2.0,77,0.00,,FEW,0.00,0.00,VWS V14.01,2013-08-30 00:47:00,
2013-08-29 20:48:00,83.2,75.2,29.96,SSE,148,1.0,2.0,77,0.00,,FEW,0.00,0.00,VWS V14.01,2013-08-30 00:48:00,
2013-08-29 20:49:00,83.2,75.2,29.96,SSE,148,1.0,2.0,77,0.00,,FEW,0.00,0.00,VWS V14.01,2013-08-30 00:49:00,
2013-08-29 20:51:00,83.1,75.5,29.96,SE,143,3.0,3.0,78,0.00,,FEW,0.00,0.00,VWS V14.01,2013-08-30 00:51:00,
2013-08-29 20:52:00,83.1,75.5,29.96,SE,138,3.0,3.0,78,0.00,,FEW,0.00,0.00,VWS V14.01,2013-08-30 00:52:00,
2013-08-29 20:53:00,83.2,75.6,29.96,SSE,158,1.0,3.0,78,0.00,,FEW,0.00,0.00,VWS V14.01,2013-08-30 00:53:00,
2013-08-29 20:54:00,83.2,75.6,29.96,SSE,153,2.0,3.0,78,0.00,,FEW,0.00,0.00,VWS V14.01,2013-08-30 00:54:00,
2013-08-29 20:55:00,83.2,75.6,29.96,SSE,151,0.0,3.0,78,0.00,,FEW,0.00,0.00,VWS V14.01,2013-08-30 00:55:00,
2013-08-29 20:57:00,83.2,75.6,29.96,SSE,157,0.0,3.0,78,0.00,,FEW,0.00,0.00,VWS V14.01,2013-08-30 00:57:00,
2013-08-29 20:58:00,83.2,75.6,29.96,SSE,152,2.0,3.0,78,0.00,,FEW,0.00,0.00,VWS V14.01,2013-08-30 00:58:00,
2013-08-29 20:59:00,83.2,75.6,29.96,SSE,149,2.0,3.0,78,0.00,,FEW,0.00,0.00,VWS V14.01,2013-08-30 00:59:00,
2013-08-29 21:00:00,83.2,75.6,29.96,SSE,149,2.0,3.0,78,0.00,,FEW,0.00,0.00,VWS V14.01,2013-08-30 01:00:00,
2013-08-29 21:02:00,83.2,76.0,29.97,SSE,153,1.0,3.0,79,0.00,,FEW,0.00,0.00,VWS V14.01,2013-08-30 01:02:00,
2013-08-29 21:03:00,83.2,76.0,29.97,South,181,4.0,4.0,79,0.00,,FEW,0.00,0.00,VWS V14.01,2013-08-30 01:03:00,
2013-08-29 21:04:00,83.2,76.0,29.97,SSE,155,2.0,4.0,79,0.00,,FEW,0.00,0.00,VWS V14.01,2013-08-30 01:04:00,
2013-08-29 21:06:00,83.2,76.0,29.97,ESE,118,1.0,4.0,79,0.00,,FEW,0.00,0.00,VWS V14.01,2013-08-30 01:06:00,
2013-08-29 21:07:00,83.2,76.0,29.97,SE,140,2.0,4.0,79,0.00,,FEW,0.00,0.00,VWS V14.01,2013-08-30 01:07:00,
2013-08-29 21:08:00,83.2,76.0,29.97,SE,131,1.0,4.0,79,0.00,,FEW,0.00,0.00,VWS V14.01,2013-08-30 01:08:00,
2013-08-29 21:09:00,83.1,75.9,29.97,SE,131,0.0,4.0,79,0.00,,FEW,0.00,0.00,VWS V14.01,2013-08-30 01:09:00,
2013-08-29 21:12:00,83.1,75.9,29.97,SSE,155,2.0,4.0,79,0.00,,FEW,0.00,0.00,VWS V14.01,2013-08-30 01:12:00,
2013-08-29 21:13:00,83.0,75.8,29.97,SSE,164,2.0,4.0,79,0.00,,FEW,0.00,0.00,VWS V14.01,2013-08-30 01:13:00,
2013-08-29 21:14:00,83.1,75.9,29.97,South,175,1.0,3.0,79,0.00,,FEW,0.00,0.00,VWS V14.01,2013-08-30 01:14:00,
2013-08-29 21:17:00,83.0,75.8,29.97,SSE,147,0.0,3.0,79,0.00,,FEW,0.00,0.00,VWS V14.01,2013-08-30 01:17:00,
2013-08-29 21:18:00,83.0,75.8,29.97,SSE,147,0.0,3.0,79,0.00,,FEW,0.00,0.00,VWS V14.01,2013-08-30 01:18:00,
2013-08-29 21:19:00,83.0,75.8,29.97,South,171,4.0,4.0,79,0.00,,FEW,0.00,0.00,VWS V14.01,2013-08-30 01:19:00,
2013-08-29 21:20:00,83.0,75.8,29.97,SSE,154,1.0,4.0,79,0.00,,FEW,0.00,0.00,VWS V14.01,2013-08-30 01:20:00,
2013-08-29 21:23:00,83.0,75.8,29.97,SSE,166,1.0,4.0,79,0.00,,FEW,0.00,0.00,VWS V14.01,2013-08-30 01:23:00,
2013-08-29 21:24:00,83.0,75.8,29.97,SSE,167,3.0,4.0,79,0.00,,FEW,0.00,0.00,VWS V14.01,2013-08-30 01:24:00,
2013-08-29 21:25:00,83.0,76.2,29.97,SE,134,3.0,4.0,80,0.00,,FEW,0.00,0.00,VWS V14.01,2013-08-30 01:25:00,
2013-08-29 21:28:00,83.0,76.2,29.97,SSE,153,3.0,4.0,80,0.00,,FEW,0.00,0.00,VWS V14.01,2013-08-30 01:28:00,
2013-08-29 21:29:00,83.0,76.2,29.97,SE,130,0.0,4.0,80,0.00,,FEW,0.00,0.00,VWS V14.01,2013-08-30 01:29:00,
2013-08-29 21:30:00,83.0,76.2,29.97,SE,146,2.0,4.0,80,0.00,,FEW,0.00,0.00,VWS V14.01,2013-08-30 01:30:00,
2013-08-29 21:31:00,83.0,76.2,29.97,South,190,2.0,4.0,80,0.00,,FEW,0.00,0.00,VWS V14.01,2013-08-30 01:31:00,
2013-08-29 21:33:00,83.0,76.2,29.98,SSE,155,1.0,2.0,80,0.00,,FEW,0.00,0.00,VWS V14.01,2013-08-30 01:33:00,
2013-08-29 21:34:00,83.0,76.2,29.98,SSE,161,1.0,2.0,80,0.00,,FEW,0.00,0.00,VWS V14.01,2013-08-30 01:34:00,
2013-08-29 21:36:00,83.0,76.2,29.98,SSW,207,0.0,6.0,80,0.00,,FEW,0.00,0.00,VWS V14.01,2013-08-30 01:36:00,
2013-08-29 21:38:00,83.0,76.2,29.98,SSE,165,0.0,6.0,80,0.00,,FEW,0.00,0.00,VWS V14.01,2013-08-30 01:38:00,
2013-08-29 21:39:00,83.0,76.2,29.98,SSE,163,0.0,6.0,80,0.00,,FEW,0.00,0.00,VWS V14.01,2013-08-30 01:39:00,
2013-08-29 21:41:00,83.0,76.6,29.98,SSW,202,1.0,6.0,81,0.00,,FEW,0.00,0.00,VWS V14.01,2013-08-30 01:41:00,
2013-08-29 21:43:00,83.0,76.6,29.98,South,178,3.0,3.0,81,0.00,,FEW,0.00,0.00,VWS V14.01,2013-08-30 01:43:00,
2013-08-29 21:44:00,82.9,76.5,29.98,SSE,167,1.0,4.0,81,0.00,,FEW,0.00,0.00,VWS V14.01,2013-08-30 01:44:00,
2013-08-29 21:46:00,82.9,76.5,29.98,South,170,0.0,4.0,81,0.00,,FEW,0.00,0.00,VWS V14.01,2013-08-30 01:46:00,
2013-08-29 21:47:00,82.9,76.5,29.98,SSE,163,2.0,4.0,81,0.00,,FEW,0.00,0.00,VWS V14.01,2013-08-30 01:47:00,
2013-08-29 21:48:00,82.9,76.5,29.97,SSE,167,1.0,4.0,81,0.00,,FEW,0.00,0.00,VWS V14.01,2013-08-30 01:48:00,
2013-08-29 21:49:00,82.9,76.5,29.97,SSW,202,5.0,5.0,81,0.00,,FEW,0.00,0.00,VWS V14.01,2013-08-30 01:49:00,
2013-08-29 21:50:00,82.9,76.5,29.97,South,174,1.0,5.0,81,0.00,,FEW,0.00,0.00,VWS V14.01,2013-08-30 01:50:00,
2013-08-29 21:51:00,82.9,76.5,29.97,SSW,202,1.0,5.0,81,0.00,,FEW,0.00,0.00,VWS V14.01,2013-08-30 01:51:00,
2013-08-29 21:52:00,82.9,76.5,29.97,South,176,0.0,5.0,81,0.00,,FEW,0.00,0.00,VWS V14.01,2013-08-30 01:52:00,
2013-08-29 21:53:00,82.9,76.5,29.97,SSW,207,1.0,1.0,81,0.00,,FEW,0.00,0.00,VWS V14.01,2013-08-30 01:53:00,
2013-08-29 21:55:00,82.8,76.4,29.97,South,175,3.0,3.0,81,0.00,,FEW,0.00,0.00,VWS V14.01,2013-08-30 01:55:00,
2013-08-29 21:57:00,82.8,76.4,29.97,South,185,3.0,4.0,81,0.00,,FEW,0.00,0.00,VWS V14.01,2013-08-30 01:57:00,
2013-08-29 21:58:00,82.8,76.4,29.97,SSW,192,3.0,4.0,81,0.00,,FEW,0.00,0.00,VWS V14.01,2013-08-30 01:58:00,
2013-08-29 21:59:00,82.7,75.9,29.97,SSW,211,3.0,4.0,80,0.00,,FEW,0.00,0.00,VWS V14.01,2013-08-30 01:59:00,
2013-08-29 22:00:00,82.7,75.9,29.97,SSW,205,3.0,4.0,80,0.00,,FEW,0.00,0.00,VWS V14.01,2013-08-30 02:00:00,
2013-08-29 22:03:00,82.6,75.8,29.98,SSW,198,0.0,4.0,80,0.00,,FEW,0.00,0.00,VWS V14.01,2013-08-30 02:03:00,
2013-08-29 22:04:00,82.7,75.9,29.98,South,187,2.0,3.0,80,0.00,,FEW,0.00,0.00,VWS V14.01,2013-08-30 02:04:00,
2013-08-29 22:05:00,82.7,76.3,29.98,South,189,1.0,3.0,81,0.00,,FEW,0.00,0.00,VWS V14.01,2013-08-30 02:05:00,
2013-08-29 22:06:00,82.7,76.3,29.98,SSW,195,1.0,3.0,81,0.00,,FEW,0.00,0.00,VWS V14.01,2013-08-30 02:06:00,
2013-08-29 22:08:00,82.8,76.4,29.98,SSW,194,2.0,5.0,81,0.00,,FEW,0.00,0.00,VWS V14.01,2013-08-30 02:08:00,
2013-08-29 22:09:00,82.8,76.4,29.98,SSW,194,1.0,5.0,81,0.00,,FEW,0.00,0.00,VWS V14.01,2013-08-30 02:09:00,
2013-08-29 22:10:00,82.8,76.4,29.98,SSW,194,0.0,5.0,81,0.00,,FEW,0.00,0.00,VWS V14.01,2013-08-30 02:10:00,
2013-08-29 22:11:00,82.8,76.4,29.98,SSW,200,2.0,5.0,81,0.00,,FEW,0.00,0.00,VWS V14.01,2013-08-30 02:11:00,
2013-08-29 22:13:00,82.9,76.8,29.98,South,185,1.0,1.0,82,0.00,,FEW,0.00,0.00,VWS V14.01,2013-08-30 02:13:00,
2013-08-29 22:14:00,82.9,76.8,29.98,SSW,203,2.0,2.0,82,0.00,,FEW,0.00,0.00,VWS V14.01,2013-08-30 02:14:00,
2013-08-29 22:15:00,82.9,76.8,29.98,South,186,0.0,3.0,82,0.00,,FEW,0.00,0.00,VWS V14.01,2013-08-30 02:15:00,
2013-08-29 22:16:00,82.9,76.8,29.98,South,184,0.0,3.0,82,0.00,,FEW,0.00,0.00,VWS V14.01,2013-08-30 02:16:00,
2013-08-29 22:18:00,82.9,76.8,29.97,South,178,1.0,3.0,82,0.00,,FEW,0.00,0.00,VWS V14.01,2013-08-30 02:18:00,
2013-08-29 22:19:00,83.0,76.9,29.97,South,178,1.0,3.0,82,0.00,,FEW,0.00,0.00,VWS V14.01,2013-08-30 02:19:00,
2013-08-29 22:20:00,82.9,76.8,29.97,SSE,167,0.0,3.0,82,0.00,,FEW,0.00,0.00,VWS V14.01,2013-08-30 02:20:00,
2013-08-29 22:21:00,82.9,76.8,29.97,South,170,0.0,3.0,82,0.00,,FEW,0.00,0.00,VWS V14.01,2013-08-30 02:21:00,
2013-08-29 22:23:00,82.9,76.8,29.97,South,173,4.0,4.0,82,0.00,,FEW,0.00,0.00,VWS V14.01,2013-08-30 02:23:00,
2013-08-29 22:24:00,82.9,76.8,29.97,South,175,3.0,4.0,82,0.00,,FEW,0.00,0.00,VWS V14.01,2013-08-30 02:24:00,
2013-08-29 22:25:00,82.8,76.8,29.97,SSE,165,2.0,4.0,82,0.00,,FEW,0.00,0.00,VWS V14.01,2013-08-30 02:25:00,
2013-08-29 22:26:00,82.8,76.8,29.97,South,173,0.0,4.0,82,0.00,,FEW,0.00,0.00,VWS V14.01,2013-08-30 02:26:00,
2013-08-29 22:29:00,82.8,76.8,29.97,SSW,198,3.0,4.0,82,0.00,,FEW,0.00,0.00,VWS V14.01,2013-08-30 02:29:00,
2013-08-29 22:30:00,82.7,76.7,29.97,SSW,197,2.0,4.0,82,0.00,,FEW,0.00,0.00,VWS V14.01,2013-08-30 02:30:00,
2013-08-29 22:31:00,82.7,76.7,29.97,SSW,198,1.0,4.0,82,0.00,,FEW,0.00,0.00,VWS V14.01,2013-08-30 02:31:00,
2013-08-29 22:34:00,82.7,76.7,29.97,SW,225,4.0,5.0,82,0.00,,FEW,0.00,0.00,VWS V14.01,2013-08-30 02:34:00,
2013-08-29 22:35:00,82.7,76.7,29.97,SW,216,2.0,5.0,82,0.00,,FEW,0.00,0.00,VWS V14.01,2013-08-30 02:35:00,
2013-08-29 22:36:00,82.6,76.6,29.97,SW,217,3.0,5.0,82,0.00,,FEW,0.00,0.00,VWS V14.01,2013-08-30 02:36:00,
2013-08-29 22:37:00,82.7,76.7,29.97,SSW,194,1.0,5.0,82,0.00,,FEW,0.00,0.00,VWS V14.01,2013-08-30 02:37:00,
2013-08-29 22:39:00,82.6,76.6,29.97,SSW,212,2.0,5.0,82,0.00,,FEW,0.00,0.00,VWS V14.01,2013-08-30 02:39:00,
2013-08-29 22:40:00,82.7,76.7,29.97,South,187,4.0,5.0,82,0.00,,FEW,0.00,0.00,VWS V14.01,2013-08-30 02:40:00,
2013-08-29 22:41:00,82.7,76.7,29.97,South,185,2.0,5.0,82,0.00,,FEW,0.00,0.00,VWS V14.01,2013-08-30 02:41:00,
2013-08-29 22:43:00,82.6,76.6,29.97,SSW,200,1.0,3.0,82,0.00,,FEW,0.00,0.00,VWS V14.01,2013-08-30 02:43:00,
2013-08-29 22:44:00,82.6,76.6,29.97,SSW,200,3.0,3.0,82,0.00,,FEW,0.00,0.00,VWS V14.01,2013-08-30 02:44:00,
2013-08-29 22:46:00,82.6,76.6,29.97,SSW,209,0.0,4.0,82,0.00,,FEW,0.00,0.00,VWS V14.01,2013-08-30 02:46:00,
2013-08-29 22:47:00,82.6,76.6,29.97,SSW,207,2.0,4.0,82,0.00,,FEW,0.00,0.00,VWS V14.01,2013-08-30 02:47:00,
2013-08-29 22:49:00,82.5,76.4,29.97,SSW,209,3.0,4.0,82,0.00,,FEW,0.00,0.00,VWS V14.01,2013-08-30 02:49:00,
2013-08-29 22:51:00,82.6,76.6,29.97,South,191,2.0,4.0,82,0.00,,FEW,0.00,0.00,VWS V14.01,2013-08-30 02:51:00,
2013-08-29 22:52:00,82.6,76.6,29.97,South,186,4.0,5.0,82,0.00,,FEW,0.00,0.00,VWS V14.01,2013-08-30 02:52:00,
2013-08-29 22:54:00,82.6,76.6,29.97,SSW,194,0.0,3.0,82,0.00,,FEW,0.00,0.00,VWS V14.01,2013-08-30 02:54:00,
2013-08-29 22:56:00,82.6,76.6,29.97,SSW,211,1.0,3.0,82,0.00,,FEW,0.00,0.00,VWS V14.01,2013-08-30 02:56:00,
2013-08-29 22:57:00,82.6,76.6,29.97,SSW,200,1.0,3.0,82,0.00,,FEW,0.00,0.00,VWS V14.01,2013-08-30 02:57:00,
2013-08-29 22:59:00,82.6,76.6,29.97,SSW,213,2.0,4.0,82,0.00,,FEW,0.00,0.00,VWS V14.01,2013-08-30 02:59:00,
2013-08-29 23:01:00,82.5,76.1,29.97,SSW,203,1.0,5.0,81,0.00,,FEW,0.00,0.00,VWS V14.01,2013-08-30 03:01:00,
2013-08-29 23:02:00,82.5,76.1,29.97,SSW,203,2.0,5.0,81,0.00,,FEW,0.00,0.00,VWS V14.01,2013-08-30 03:02:00,
2013-08-29 23:04:00,82.5,76.1,29.97,SSW,203,0.0,0.0,81,0.00,,FEW,0.00,0.00,VWS V14.01,2013-08-30 03:04:00,
2013-08-29 23:05:00,82.5,76.1,29.97,SW,214,2.0,2.0,81,0.00,,FEW,0.00,0.00,VWS V14.01,2013-08-30 03:05:00,
2013-08-29 23:06:00,82.4,76.0,29.97,SW,214,1.0,2.0,81,0.00,,FEW,0.00,0.00,VWS V14.01,2013-08-30 03:06:00,
2013-08-29 23:07:00,82.4,75.6,29.97,SW,214,1.0,2.0,80,0.00,,FEW,0.00,0.00,VWS V14.01,2013-08-30 03:07:00,
2013-08-29 23:09:00,82.4,75.6,29.97,SSW,193,2.0,3.0,80,0.00,,FEW,0.00,0.00,VWS V14.01,2013-08-30 03:09:00,
2013-08-29 23:10:00,82.4,75.6,29.97,SSW,213,2.0,3.0,80,0.00,,FEW,0.00,0.00,VWS V14.01,2013-08-30 03:10:00,
2013-08-29 23:11:00,82.4,75.6,29.97,SSW,205,1.0,3.0,80,0.00,,FEW,0.00,0.00,VWS V14.01,2013-08-30 03:11:00,
2013-08-29 23:12:00,82.4,75.6,29.97,SSW,194,0.0,3.0,80,0.00,,FEW,0.00,0.00,VWS V14.01,2013-08-30 03:12:00,
2013-08-29 23:14:00,82.4,75.6,29.97,SSW,194,0.0,2.0,80,0.00,,FEW,0.00,0.00,VWS V14.01,2013-08-30 03:14:00,
2013-08-29 23:15:00,82.4,75.6,29.97,SSW,194,1.0,2.0,80,0.00,,FEW,0.00,0.00,VWS V14.01,2013-08-30 03:15:00,
2013-08-29 23:16:00,82.4,75.6,29.97,SSW,205,2.0,3.0,80,0.00,,FEW,0.00,0.00,VWS V14.01,2013-08-30 03:16:00,
2013-08-29 23:17:00,82.4,75.6,29.97,SSW,205,2.0,3.0,80,0.00,,FEW,0.00,0.00,VWS V14.01,2013-08-30 03:17:00,
2013-08-29 23:18:00,82.5,75.7,29.98,SSW,201,2.0,3.0,80,0.00,,FEW,0.00,0.00,VWS V14.01,2013-08-30 03:18:00,
2013-08-29 23:19:00,82.5,75.7,29.98,SSW,201,1.0,3.0,80,0.00,,FEW,0.00,0.00,VWS V14.01,2013-08-30 03:19:00,
2013-08-29 23:20:00,82.5,75.7,29.98,SSW,201,0.0,3.0,80,0.00,,FEW,0.00,0.00,VWS V14.01,2013-08-30 03:20:00,
2013-08-29 23:21:00,82.5,75.7,29.98,SSW,200,3.0,3.0,80,0.00,,FEW,0.00,0.00,VWS V14.01,2013-08-30 03:21:00,
2013-08-29 23:22:00,82.5,75.7,29.98,SSW,208,2.0,3.0,80,0.00,,FEW,0.00,0.00,VWS V14.01,2013-08-30 03:22:00,
2013-08-29 23:23:00,82.5,75.7,29.98,SSW,213,1.0,3.0,80,0.00,,FEW,0.00,0.00,VWS V14.01,2013-08-30 03:23:00,
2013-08-29 23:24:00,82.5,75.7,29.98,SSW,213,2.0,2.0,80,0.00,,FEW,0.00,0.00,VWS V14.01,2013-08-30 03:24:00,
2013-08-29 23:25:00,82.5,75.7,29.98,SSW,213,0.0,2.0,80,0.00,,FEW,0.00,0.00,VWS V14.01,2013-08-30 03:25:00,
2013-08-29 23:26:00,82.5,75.7,29.98,SSW,213,1.0,2.0,80,0.00,,FEW,0.00,0.00,VWS V14.01,2013-08-30 03:26:00,
2013-08-29 23:27:00,82.5,75.7,29.98,SSW,213,0.0,2.0,80,0.00,,FEW,0.00,0.00,VWS V14.01,2013-08-30 03:27:00,
2013-08-29 23:28:00,82.5,75.7,29.98,SSW,213,0.0,2.0,80,0.00,,FEW,0.00,0.00,VWS V14.01,2013-08-30 03:28:00,
2013-08-29 23:29:00,82.5,75.7,29.98,SSW,213,0.0,2.0,80,0.00,,FEW,0.00,0.00,VWS V14.01,2013-08-30 03:29:00,
2013-08-29 23:30:00,82.5,75.7,29.98,SSW,213,0.0,2.0,80,0.00,,FEW,0.00,0.00,VWS V14.01,2013-08-30 03:30:00,
2013-08-29 23:32:00,82.5,75.7,29.98,SSW,213,0.0,2.0,80,0.00,,FEW,0.00,0.00,VWS V14.01,2013-08-30 03:32:00,
2013-08-29 23:33:00,82.4,75.6,29.99,SSW,213,0.0,2.0,80,0.00,,FEW,0.00,0.00,VWS V14.01,2013-08-30 03:33:00,
2013-08-29 23:34:00,82.4,75.6,29.99,SSW,213,0.0,2.0,80,0.00,,FEW,0.00,0.00,VWS V14.01,2013-08-30 03:34:00,
2013-08-29 23:37:00,82.4,75.6,29.99,SSW,213,0.0,2.0,80,0.00,,FEW,0.00,0.00,VWS V14.01,2013-08-30 03:37:00,
2013-08-29 23:38:00,82.4,75.6,29.99,SSW,213,1.0,2.0,80,0.00,,FEW,0.00,0.00,VWS V14.01,2013-08-30 03:38:00,
2013-08-29 23:39:00,82.4,75.6,29.99,SSW,213,1.0,2.0,80,0.00,,FEW,0.00,0.00,VWS V14.01,2013-08-30 03:39:00,
2013-08-29 23:42:00,82.3,75.5,29.99,SSW,213,0.0,2.0,80,0.00,,FEW,0.00,0.00,VWS V14.01,2013-08-30 03:42:00,
2013-08-29 23:43:00,82.3,75.5,29.99,SSW,213,0.0,1.0,80,0.00,,FEW,0.00,0.00,VWS V14.01,2013-08-30 03:43:00,
2013-08-29 23:44:00,82.3,75.5,29.99,SSW,213,0.0,1.0,80,0.00,,FEW,0.00,0.00,VWS V14.01,2013-08-30 03:44:00,
2013-08-29 23:47:00,82.2,75.8,29.98,SSW,213,1.0,2.0,81,0.00,,FEW,0.00,0.00,VWS V14.01,2013-08-30 03:47:00,
2013-08-29 23:49:00,82.2,75.8,29.98,SSW,213,0.0,2.0,81,0.00,,FEW,0.00,0.00,VWS V14.01,2013-08-30 03:49:00,
2013-08-29 23:50:00,82.2,75.8,29.98,SSW,213,0.0,2.0,81,0.00,,FEW,0.00,0.00,VWS V14.01,2013-08-30 03:50:00,
2013-08-29 23:52:00,82.1,75.7,29.98,SW,216,0.0,2.0,81,0.00,,FEW,0.00,0.00,VWS V14.01,2013-08-30 03:52:00,
2013-08-29 23:53:00,82.1,75.7,29.98,SW,216,0.0,2.0,81,0.00,,FEW,0.00,0.00,VWS V14.01,2013-08-30 03:53:00,
2013-08-29 23:54:00,82.1,75.7,29.98,SW,216,0.0,2.0,81,0.00,,FEW,0.00,0.00,VWS V14.01,2013-08-30 03:54:00,
2013-08-29 23:55:00,82.1,75.7,29.98,SW,216,0.0,2.0,81,0.00,,FEW,0.00,0.00,VWS V14.01,2013-08-30 03:55:00,
2013-08-29 23:58:00,82.1,75.7,29.98,SW,216,0.0,2.0,81,0.00,,FEW,0.00,0.00,VWS V14.01,2013-08-30 03:58:00,
2013-08-29 23:59:00,82.1,75.7,29.98,SW,216,2.0,2.0,81,0.00,,FEW,0.00,0.00,VWS V14.01,2013-08-30 03:59:00,